REU974 LFPG-FMEE

Flight info

Callsign REU974
Flight time 10h 36m
Altitude 33000
Route LANVI DCT DEVDI DCT RIPUS DCT RESIA DCT LAPAB DCT LABIN DCT ELGUS DCT AIOSA DCT NOSTO DCT SALUN N705 BOPIX N710 TAKRI P751 KUNKI/N0485F350 P751 LXR M999 JDW G650 RASKA/N0496F340 G650 ULONI UG650 ASM/N0492F360 UG650 KONET/N0494F350 DCT XADOX DCT DWA UN304 MOGDU/N0490F370 UN304 APKAK/N0492F360 UN304 DENLI/N0488F370 UN304 UVENA UVENA2R
Aircraft B77W/H-SDE1E2E3FGHIJ2J3J4J5M1RWXY/LB1D1

Departure

Time 2026-05-07 21:18
Airport Charles de Gaulle International Airport (LFPG)

Arrival

Time 2026-05-08 07:54
Airport Roland Garros Airport (FMEE)
Time Latitude Longitude Altitude Speed Heading
2026-05-07 21:00 49.00166 2.56123 340 ft 0 kts
2026-05-07 21:09 49.00164 2.56123 340 ft 2 kts
2026-05-07 21:09 49.00148 2.56123 340 ft 2 kts 354°
2026-05-07 21:09 49.00134 2.56128 339 ft 2 kts 338°
2026-05-07 21:09 49.00121 2.56138 339 ft 2 kts 325°
2026-05-07 21:10 49.00109 2.56153 339 ft 2 kts 313°
2026-05-07 21:10 49.00100 2.56171 339 ft 2 kts 300°
2026-05-07 21:10 49.00094 2.56191 338 ft 2 kts 287°
2026-05-07 21:10 49.00091 2.56213 338 ft 2 kts 275°
2026-05-07 21:11 49.00091 2.56235 338 ft 2 kts 265°
2026-05-07 21:11 49.00092 2.56249 338 ft 0 kts 265°
2026-05-07 21:11 49.00092 2.56248 338 ft 0 kts 265°
2026-05-07 21:13 49.00090 2.56211 338 ft 7 kts 269°
2026-05-07 21:13 49.00088 2.56103 338 ft 11 kts 267°
2026-05-07 21:14 49.00082 2.55993 340 ft 8 kts 265°
2026-05-07 21:14 49.00076 2.55909 340 ft 7 kts 265°
2026-05-07 21:14 49.00074 2.55829 340 ft 7 kts 268°
2026-05-07 21:14 49.00071 2.55737 340 ft 9 kts 268°
2026-05-07 21:15 49.00037 2.55662 340 ft 9 kts 188°
2026-05-07 21:15 48.99971 2.55681 339 ft 10 kts 158°
2026-05-07 21:15 48.99924 2.55758 338 ft 10 kts 127°
2026-05-07 21:15 48.99858 2.55805 337 ft 11 kts 176°
2026-05-07 21:16 48.99778 2.55810 337 ft 11 kts 178°
2026-05-07 21:16 48.99702 2.55815 337 ft 10 kts 175°
2026-05-07 21:16 48.99635 2.55823 336 ft 9 kts 175°
2026-05-07 21:16 48.99598 2.55878 335 ft 7 kts 88°
2026-05-07 21:17 48.99604 2.55961 335 ft 11 kts 84°
2026-05-07 21:17 48.99628 2.56373 333 ft 70 kts 86°
2026-05-07 21:17 48.99682 2.57420 334 ft 126 kts 84°
2026-05-07 21:17 48.99764 2.59014 374 ft 167 kts 85°
2026-05-07 21:18 48.99854 2.60765 846 ft 170 kts 85°
2026-05-07 21:18 48.99965 2.62558 1477 ft 172 kts 84°
2026-05-07 21:18 49.00071 2.64406 1818 ft 182 kts 86°
2026-05-07 21:18 49.00169 2.66390 2046 ft 198 kts 86°
2026-05-07 21:19 49.00286 2.68600 2239 ft 219 kts 85°
2026-05-07 21:19 49.00327 2.70989 2520 ft 235 kts 86°
2026-05-07 21:19 49.00496 2.73544 2929 ft 248 kts 84°
2026-05-07 21:19 49.00661 2.76158 3557 ft 253 kts 85°
2026-05-07 21:20 49.00739 2.78849 4174 ft 257 kts 96°
2026-05-07 21:20 49.00481 2.81541 4796 ft 260 kts 100°
2026-05-07 21:20 49.00176 2.84237 5468 ft 261 kts 100°
2026-05-07 21:20 48.99863 2.86973 6077 ft 265 kts 100°
2026-05-07 21:21 48.99548 2.89722 6655 ft 269 kts 100°
2026-05-07 21:21 48.99224 2.92541 7209 ft 273 kts 100°
2026-05-07 21:21 48.98892 2.95419 7774 ft 278 kts 100°
2026-05-07 21:21 48.98597 2.98332 8329 ft 283 kts 98°
2026-05-07 21:22 48.98347 3.01316 8889 ft 286 kts 98°
2026-05-07 21:22 48.98098 3.04331 9393 ft 291 kts 98°
2026-05-07 21:22 48.97847 3.07375 9906 ft 295 kts 98°
2026-05-07 21:22 48.97584 3.10534 10333 ft 304 kts 98°
2026-05-07 21:23 48.97312 3.13793 10537 ft 321 kts 98°
2026-05-07 21:23 48.97025 3.17223 10775 ft 336 kts 98°
2026-05-07 21:23 48.96721 3.20838 11035 ft 352 kts 98°
2026-05-07 21:23 48.96403 3.24607 11316 ft 367 kts 98°
2026-05-07 21:24 48.96073 3.28514 11627 ft 381 kts 98°
2026-05-07 21:24 48.95731 3.32537 12105 ft 390 kts 98°
2026-05-07 21:24 48.95379 3.36675 12766 ft 395 kts 98°
2026-05-07 21:24 48.95026 3.40805 13424 ft 399 kts 98°
2026-05-07 21:25 48.94667 3.44979 14095 ft 403 kts 98°
2026-05-07 21:25 48.94302 3.49218 14801 ft 407 kts 98°
2026-05-07 21:25 48.93932 3.53481 15503 ft 411 kts 98°
2026-05-07 21:25 48.93597 3.57795 16161 ft 415 kts 95°
2026-05-07 21:26 48.93377 3.62142 16838 ft 419 kts 94°
2026-05-07 21:26 48.93157 3.66609 17518 ft 423 kts 95°
2026-05-07 21:26 48.92934 3.71030 18146 ft 427 kts 95°
2026-05-07 21:26 48.92700 3.75541 18783 ft 431 kts 95°
2026-05-07 21:27 48.92462 3.80059 19422 ft 434 kts 95°
2026-05-07 21:27 48.92218 3.84658 20044 ft 438 kts 95°
2026-05-07 21:27 48.91967 3.89301 20631 ft 443 kts 95°
2026-05-07 21:27 48.91711 3.93965 21214 ft 447 kts 95°
2026-05-07 21:28 48.91453 3.98634 21783 ft 450 kts 95°
2026-05-07 21:28 48.91186 4.03423 22339 ft 454 kts 95°
2026-05-07 21:28 48.90917 4.08216 22876 ft 458 kts 95°
2026-05-07 21:28 48.90646 4.13002 23396 ft 462 kts 95°
2026-05-07 21:29 48.90331 4.17896 23899 ft 466 kts 99°
2026-05-07 21:29 48.89616 4.22638 24373 ft 469 kts 108°
2026-05-07 21:29 48.88378 4.27264 24857 ft 471 kts 117°
2026-05-07 21:29 48.86842 4.31614 25357 ft 473 kts 120°
2026-05-07 21:30 48.85249 4.35973 25848 ft 476 kts 120°
2026-05-07 21:30 48.83647 4.40342 26321 ft 479 kts 120°
2026-05-07 21:30 48.82029 4.44747 26792 ft 482 kts 120°
2026-05-07 21:30 48.80394 4.49195 27238 ft 485 kts 120°
2026-05-07 21:31 48.78743 4.53677 27669 ft 488 kts 120°
2026-05-07 21:31 48.77090 4.58156 28103 ft 491 kts 120°
2026-05-07 21:31 48.75426 4.62659 28556 ft 493 kts 120°
2026-05-07 21:31 48.73753 4.67182 28968 ft 496 kts 121°
2026-05-07 21:32 48.72065 4.71733 29379 ft 499 kts 121°
2026-05-07 21:32 48.70371 4.76295 29897 ft 498 kts 121°
2026-05-07 21:32 48.68682 4.80835 30521 ft 496 kts 121°
2026-05-07 21:32 48.66989 4.85381 31120 ft 493 kts 121°
2026-05-07 21:33 48.65323 4.89844 31597 ft 492 kts 121°
2026-05-07 21:33 48.63634 4.94362 32008 ft 493 kts 121°
2026-05-07 21:33 48.61960 4.98830 32377 ft 493 kts 121°
2026-05-07 21:33 48.60272 5.03328 32730 ft 493 kts 121°
2026-05-07 21:34 48.58595 5.07791 33020 ft 495 kts 121°
2026-05-07 21:34 48.56887 5.12328 33036 ft 496 kts 121°
2026-05-07 21:34 48.53494 5.21316 33039 ft 494 kts 121°
2026-05-07 21:35 48.50087 5.30311 33034 ft 495 kts 121°
2026-05-07 21:35 48.46693 5.39242 33040 ft 495 kts 121°
2026-05-07 21:36 48.43276 5.48205 33040 ft 495 kts 121°
2026-05-07 21:36 48.39833 5.57205 33041 ft 496 kts 121°
2026-05-07 21:37 48.36392 5.66168 33037 ft 496 kts 122°
2026-05-07 21:37 48.32949 5.75105 33040 ft 496 kts 122°
2026-05-07 21:38 48.29610 5.84119 33044 ft 498 kts 117°
2026-05-07 21:38 48.26682 5.93546 33042 ft 499 kts 117°
2026-05-07 21:39 48.23752 6.02895 33045 ft 499 kts 117°
2026-05-07 21:39 48.20781 6.12275 33053 ft 499 kts 117°
2026-05-07 21:40 48.17793 6.21633 33054 ft 500 kts 117°
2026-05-07 21:40 48.14780 6.31016 33057 ft 500 kts 117°
2026-05-07 21:41 48.11767 6.40355 33057 ft 500 kts 117°
2026-05-07 21:41 48.08746 6.49677 33058 ft 501 kts 117°
2026-05-07 21:42 48.05715 6.58991 33055 ft 500 kts 117°
2026-05-07 21:42 48.02668 6.68320 33052 ft 501 kts 118°
2026-05-07 21:43 47.99610 6.77648 33050 ft 501 kts 118°
2026-05-07 21:43 47.96545 6.86961 33051 ft 501 kts 118°
2026-05-07 21:44 47.93480 6.96238 33056 ft 501 kts 118°
2026-05-07 21:44 47.90400 7.05532 33053 ft 502 kts 118°
2026-05-07 21:45 47.87320 7.14791 33058 ft 501 kts 118°
2026-05-07 21:45 47.84214 7.24091 33064 ft 502 kts 118°
2026-05-07 21:46 47.81114 7.33344 33064 ft 502 kts 118°
2026-05-07 21:46 47.77996 7.42614 33066 ft 502 kts 118°
2026-05-07 21:47 47.74889 7.51813 33059 ft 502 kts 119°
2026-05-07 21:47 47.71092 7.60378 33059 ft 499 kts 128°
2026-05-07 21:48 47.66975 7.68710 33052 ft 499 kts 129°
2026-05-07 21:48 47.62886 7.76948 33047 ft 500 kts 129°
2026-05-07 21:49 47.58779 7.85189 33047 ft 500 kts 129°
2026-05-07 21:49 47.54640 7.93467 33049 ft 500 kts 129°
2026-05-07 21:50 47.50527 8.01667 33060 ft 500 kts 129°
2026-05-07 21:50 47.46381 8.09908 33059 ft 501 kts 129°
2026-05-07 21:51 47.42213 8.18165 33068 ft 501 kts 129°
2026-05-07 21:51 47.38061 8.26366 33059 ft 503 kts 129°
2026-05-07 21:52 47.33887 8.34588 33067 ft 503 kts 129°
2026-05-07 21:52 47.29701 8.42807 33063 ft 503 kts 129°
2026-05-07 21:53 47.25503 8.51028 33069 ft 504 kts 129°
2026-05-07 21:53 47.21386 8.59356 33067 ft 504 kts 128°
2026-05-07 21:54 47.17283 8.67662 33067 ft 506 kts 129°
2026-05-07 21:54 47.13140 8.76020 33077 ft 505 kts 129°
2026-05-07 21:55 47.09008 8.84323 33071 ft 505 kts 129°
2026-05-07 21:55 47.04878 8.92594 33057 ft 508 kts 129°
2026-05-07 21:56 47.00701 9.00932 33070 ft 508 kts 129°
2026-05-07 21:56 46.96548 9.09199 33065 ft 507 kts 130°
2026-05-07 21:57 46.92357 9.17512 33060 ft 508 kts 130°
2026-05-07 21:57 46.88177 9.25780 33065 ft 508 kts 129°
2026-05-07 21:58 46.83975 9.34066 33070 ft 509 kts 129°
2026-05-07 21:58 46.79778 9.42317 33074 ft 509 kts 130°
2026-05-07 21:59 46.75568 9.50569 33081 ft 510 kts 129°
2026-05-07 21:59 46.71329 9.58856 33064 ft 508 kts 130°
2026-05-07 22:00 46.67108 9.67079 33067 ft 510 kts 130°
2026-05-07 22:00 46.62874 9.75306 33069 ft 509 kts 130°
2026-05-07 22:01 46.58631 9.83525 33072 ft 509 kts 130°
2026-05-07 22:01 46.54396 9.91704 33076 ft 509 kts 130°
2026-05-07 22:02 46.50131 9.99919 33076 ft 511 kts 130°
2026-05-07 22:02 46.45918 10.08180 33082 ft 511 kts 128°
2026-05-07 22:03 46.41906 10.16658 33078 ft 511 kts 128°
2026-05-07 22:03 46.37893 10.25102 33098 ft 512 kts 128°
2026-05-07 22:04 46.33867 10.33525 33096 ft 511 kts 128°
2026-05-07 22:04 46.29826 10.41941 33096 ft 513 kts 128°
2026-05-07 22:05 46.25759 10.50379 33099 ft 511 kts 128°
2026-05-07 22:05 46.21685 10.58800 33093 ft 512 kts 128°
2026-05-07 22:06 46.17609 10.67198 33080 ft 511 kts 129°
2026-05-07 22:06 46.13548 10.75540 33079 ft 512 kts 129°
2026-05-07 22:07 46.09459 10.83915 33081 ft 511 kts 129°
2026-05-07 22:07 46.05375 10.92254 33080 ft 510 kts 129°
2026-05-07 22:08 46.01297 11.00554 33079 ft 511 kts 129°
2026-05-07 22:08 45.97191 11.08890 33073 ft 511 kts 129°
2026-05-07 22:09 45.93088 11.17191 33072 ft 512 kts 129°
2026-05-07 22:09 45.88966 11.25508 33070 ft 515 kts 129°
2026-05-07 22:10 45.84831 11.33827 33078 ft 514 kts 129°
2026-05-07 22:10 45.80667 11.42179 33072 ft 516 kts 130°
2026-05-07 22:11 45.76500 11.50512 33068 ft 516 kts 130°
2026-05-07 22:11 45.72343 11.58803 33060 ft 517 kts 130°
2026-05-07 22:12 45.68126 11.67185 33048 ft 519 kts 131°
2026-05-07 22:12 45.63935 11.75496 33041 ft 517 kts 131°
2026-05-07 22:13 45.59724 11.83817 33044 ft 520 kts 131°
2026-05-07 22:13 45.55483 11.92175 33048 ft 521 kts 131°
2026-05-07 22:14 45.51261 12.00573 33039 ft 523 kts 129°
2026-05-07 22:14 45.47200 12.09122 33039 ft 522 kts 129°
2026-05-07 22:15 45.43136 12.17650 33034 ft 525 kts 129°
2026-05-07 22:15 45.39011 12.26260 33036 ft 526 kts 129°
2026-05-07 22:16 45.34898 12.34814 33034 ft 526 kts 129°
2026-05-07 22:16 45.30780 12.43343 33034 ft 527 kts 129°
2026-05-07 22:17 45.26642 12.51889 33021 ft 527 kts 129°
2026-05-07 22:17 45.22482 12.60449 33020 ft 529 kts 129°
2026-05-07 22:18 45.16235 12.73259 33015 ft 527 kts 130°
2026-05-07 22:19 45.12045 12.81815 33008 ft 529 kts 130°
2026-05-07 22:19 45.07874 12.90308 33019 ft 529 kts 129°
2026-05-07 22:20 45.03680 12.98825 33015 ft 529 kts 129°
2026-05-07 22:20 44.99432 13.07337 33007 ft 529 kts 133°
2026-05-07 22:21 44.94441 13.14702 33016 ft 519 kts 142°
2026-05-07 22:21 44.89257 13.21699 33025 ft 517 kts 142°
2026-05-07 22:22 44.84030 13.28722 33019 ft 517 kts 142°
2026-05-07 22:22 44.78840 13.35675 33025 ft 518 kts 142°
2026-05-07 22:23 44.73655 13.42605 33025 ft 516 kts 142°
2026-05-07 22:23 44.68453 13.49537 33028 ft 515 kts 142°
2026-05-07 22:24 44.63255 13.56445 33034 ft 514 kts 142°
2026-05-07 22:24 44.58063 13.63327 33025 ft 514 kts 142°
2026-05-07 22:25 44.52904 13.70149 33026 ft 513 kts 143°
2026-05-07 22:25 44.47744 13.76951 33021 ft 510 kts 143°
2026-05-07 22:26 44.42553 13.83775 33023 ft 513 kts 143°
2026-05-07 22:26 44.37358 13.90592 33034 ft 511 kts 143°
2026-05-07 22:27 44.32184 13.97367 33025 ft 511 kts 143°
2026-05-07 22:27 44.27034 14.04088 33024 ft 510 kts 143°
2026-05-07 22:28 44.21855 14.10828 33019 ft 510 kts 143°
2026-05-07 22:28 44.16693 14.17532 33020 ft 507 kts 143°
2026-05-07 22:29 44.11525 14.24227 33030 ft 511 kts 144°
2026-05-07 22:29 44.06378 14.30885 33025 ft 510 kts 143°
2026-05-07 22:30 44.01197 14.37561 33025 ft 508 kts 144°
2026-05-07 22:30 43.96000 14.44242 33022 ft 509 kts 144°
2026-05-07 22:31 43.90816 14.50891 33029 ft 508 kts 144°
2026-05-07 22:31 43.85642 14.57509 33031 ft 509 kts 144°
2026-05-07 22:32 43.80475 14.64100 33038 ft 510 kts 144°
2026-05-07 22:32 43.75243 14.70763 33016 ft 507 kts 144°
2026-05-07 22:33 43.70070 14.77336 33024 ft 507 kts 144°
2026-05-07 22:33 43.64907 14.83878 33019 ft 508 kts 144°
2026-05-07 22:34 43.59639 14.90536 33024 ft 508 kts 144°
2026-05-07 22:34 43.54459 14.97068 33023 ft 506 kts 144°
2026-05-07 22:35 43.49502 15.04171 33024 ft 513 kts 139°
2026-05-07 22:35 43.44671 15.11332 33026 ft 512 kts 139°
2026-05-07 22:36 43.39772 15.18529 33020 ft 511 kts 139°
2026-05-07 22:36 43.34905 15.25635 33018 ft 513 kts 139°
2026-05-07 22:37 43.30039 15.32709 33020 ft 510 kts 139°
2026-05-07 22:37 43.25160 15.39774 33024 ft 513 kts 140°
2026-05-07 22:38 43.20284 15.46818 33023 ft 512 kts 139°
2026-05-07 22:38 43.15368 15.53898 33026 ft 512 kts 139°
2026-05-07 22:39 43.10446 15.60967 33023 ft 511 kts 139°
2026-05-07 22:39 43.05536 15.68002 33003 ft 512 kts 140°
2026-05-07 22:40 43.00600 15.75055 33001 ft 507 kts 140°
2026-05-07 22:40 42.95701 15.82035 33011 ft 513 kts 140°
2026-05-07 22:41 42.90793 15.89019 33000 ft 510 kts 140°
2026-05-07 22:41 42.85887 15.95976 33014 ft 513 kts 140°
2026-05-07 22:42 42.80948 16.02964 33008 ft 513 kts 140°
2026-05-07 22:42 42.75978 16.09975 33007 ft 511 kts 140°
2026-05-07 22:43 42.71059 16.16899 33019 ft 515 kts 140°
2026-05-07 22:43 42.66111 16.23847 33012 ft 512 kts 140°
2026-05-07 22:44 42.61115 16.30849 33017 ft 515 kts 140°
2026-05-07 22:44 42.56187 16.37739 33013 ft 512 kts 140°
2026-05-07 22:45 42.51198 16.44689 33018 ft 515 kts 140°
2026-05-07 22:45 42.46243 16.51588 33017 ft 514 kts 140°
2026-05-07 22:46 42.41241 16.58526 33011 ft 514 kts 140°
2026-05-07 22:46 42.36265 16.65412 33014 ft 518 kts 141°
2026-05-07 22:47 42.31227 16.72367 32996 ft 515 kts 141°
2026-05-07 22:47 42.26213 16.79271 33010 ft 519 kts 141°
2026-05-07 22:48 42.21193 16.86173 33009 ft 516 kts 141°
2026-05-07 22:48 42.16138 16.93098 33003 ft 521 kts 141°
2026-05-07 22:49 42.11083 17.00013 33017 ft 518 kts 141°
2026-05-07 22:49 42.06016 17.06924 33017 ft 521 kts 141°
2026-05-07 22:50 42.00957 17.13809 33019 ft 523 kts 141°
2026-05-07 22:50 41.95875 17.20712 33019 ft 518 kts 140°
2026-05-07 22:51 41.90358 17.26854 33023 ft 513 kts 153°
2026-05-07 22:51 41.84442 17.32012 33018 ft 506 kts 154°
2026-05-07 22:52 41.78472 17.37156 33020 ft 508 kts 154°
2026-05-07 22:52 41.72549 17.42241 33030 ft 506 kts 154°
2026-05-07 22:53 41.66637 17.47298 33019 ft 506 kts 154°
2026-05-07 22:53 41.60722 17.52345 33024 ft 507 kts 154°
2026-05-07 22:54 41.54784 17.57399 33020 ft 507 kts 154°
2026-05-07 22:54 41.48865 17.62425 33026 ft 506 kts 155°
2026-05-07 22:55 41.42926 17.67455 33008 ft 508 kts 155°
2026-05-07 22:55 41.36974 17.72488 33020 ft 506 kts 156°
2026-05-07 22:56 41.31069 17.77470 33012 ft 501 kts 155°
2026-05-07 22:56 41.25141 17.82456 33019 ft 505 kts 156°
2026-05-07 22:57 41.19293 17.87370 33029 ft 501 kts 156°
2026-05-07 22:57 41.13365 17.92332 33023 ft 505 kts 156°
2026-05-07 22:58 41.07423 17.97301 33036 ft 507 kts 156°
2026-05-07 22:58 41.01501 18.02242 33029 ft 505 kts 156°
2026-05-07 22:59 40.95570 18.07181 33031 ft 504 kts 156°
2026-05-07 22:59 40.89623 18.12117 33034 ft 509 kts 156°
2026-05-07 23:00 40.83653 18.17069 33036 ft 505 kts 156°
2026-05-07 23:00 40.77671 18.22015 33032 ft 508 kts 156°
2026-05-07 23:01 40.71734 18.26918 33038 ft 505 kts 156°
2026-05-07 23:01 40.65787 18.31814 33032 ft 505 kts 156°
2026-05-07 23:02 40.59845 18.36697 33037 ft 507 kts 156°
2026-05-07 23:02 40.53846 18.41615 33033 ft 509 kts 156°
2026-05-07 23:03 40.47860 18.46514 33029 ft 509 kts 156°
2026-05-07 23:03 40.41868 18.51408 33031 ft 509 kts 156°
2026-05-07 23:04 40.35844 18.56317 33030 ft 508 kts 155°
2026-05-07 23:04 40.29876 18.61173 33029 ft 503 kts 156°
2026-05-07 23:05 40.23880 18.66033 33021 ft 510 kts 156°
2026-05-07 23:05 40.17873 18.70899 33015 ft 507 kts 156°
2026-05-07 23:06 40.11917 18.75711 33021 ft 509 kts 156°
2026-05-07 23:06 40.05883 18.80578 33022 ft 505 kts 156°
2026-05-07 23:07 39.99899 18.85391 33017 ft 508 kts 155°
2026-05-07 23:07 39.93903 18.90204 33027 ft 509 kts 156°
2026-05-07 23:08 39.87824 18.95075 33024 ft 510 kts 155°
2026-05-07 23:08 39.81840 18.99904 33012 ft 513 kts 152°
2026-05-07 23:09 39.76135 19.05662 33027 ft 519 kts 148°
2026-05-07 23:09 39.70493 19.11518 33032 ft 517 kts 148°
2026-05-07 23:10 39.64853 19.17346 33032 ft 523 kts 148°
2026-05-07 23:10 39.59158 19.23212 33030 ft 517 kts 148°
2026-05-07 23:11 39.53497 19.29024 33034 ft 524 kts 148°
2026-05-07 23:11 39.47775 19.34885 33035 ft 524 kts 148°
2026-05-07 23:12 39.42097 19.40690 33039 ft 524 kts 148°
2026-05-07 23:12 39.36367 19.46532 33032 ft 523 kts 148°
2026-05-07 23:13 39.30652 19.52345 33047 ft 527 kts 148°
2026-05-07 23:13 39.24917 19.58169 33040 ft 525 kts 148°
2026-05-07 23:14 39.19173 19.63985 33044 ft 526 kts 148°
2026-05-07 23:14 39.13423 19.69798 33035 ft 524 kts 149°
2026-05-07 23:15 39.07641 19.75629 33033 ft 528 kts 149°
2026-05-07 23:15 39.01925 19.81383 33034 ft 523 kts 149°
2026-05-07 23:16 38.96143 19.87187 33044 ft 527 kts 149°
2026-05-07 23:16 38.90397 19.92943 33048 ft 529 kts 149°
2026-05-07 23:17 38.84594 19.98752 33038 ft 529 kts 148°
2026-05-07 23:17 38.78805 20.04530 33047 ft 530 kts 149°
2026-05-07 23:18 38.72979 20.10331 33059 ft 533 kts 148°
2026-05-07 23:18 38.67149 20.16126 33051 ft 532 kts 148°
2026-05-07 23:19 38.61317 20.21906 33053 ft 534 kts 148°
2026-05-07 23:19 38.55439 20.27725 33061 ft 534 kts 148°
2026-05-07 23:20 38.49580 20.33510 33061 ft 531 kts 148°
2026-05-07 23:20 38.43716 20.39287 33070 ft 536 kts 148°
2026-05-07 23:21 38.37873 20.45037 33073 ft 534 kts 148°
2026-05-07 23:21 38.31998 20.50798 33096 ft 538 kts 148°
2026-05-07 23:22 38.26026 20.56644 33100 ft 538 kts 147°
2026-05-07 23:22 38.20159 20.62380 33101 ft 535 kts 147°
2026-05-07 23:23 38.14242 20.68148 33066 ft 538 kts 148°
2026-05-07 23:23 38.08351 20.73884 33061 ft 536 kts 148°
2026-05-07 23:24 38.02376 20.79681 33073 ft 541 kts 148°
2026-05-07 23:24 37.96469 20.85407 33074 ft 536 kts 148°
2026-05-07 23:25 37.90524 20.91153 33083 ft 539 kts 148°
2026-05-07 23:25 37.84610 20.96862 33083 ft 536 kts 148°
2026-05-07 23:26 37.78632 21.02617 33089 ft 539 kts 147°
2026-05-07 23:26 37.72722 21.08297 33085 ft 536 kts 147°
2026-05-07 23:27 37.63739 21.16906 33098 ft 538 kts 148°
2026-05-07 23:27 37.57829 21.22557 33102 ft 537 kts 147°
2026-05-07 23:28 37.51863 21.28248 33092 ft 536 kts 147°
2026-05-07 23:28 37.45909 21.33915 33098 ft 541 kts 147°
2026-05-07 23:29 37.39936 21.39591 33095 ft 536 kts 147°
2026-05-07 23:29 37.33960 21.45256 33109 ft 541 kts 147°
2026-05-07 23:30 37.28011 21.50886 33102 ft 538 kts 147°
2026-05-07 23:30 37.21989 21.56572 33109 ft 541 kts 147°
2026-05-07 23:31 37.16008 21.62208 33119 ft 540 kts 147°
2026-05-07 23:31 37.10028 21.67833 33111 ft 540 kts 148°
2026-05-07 23:32 37.04005 21.73485 33127 ft 544 kts 147°
2026-05-07 23:32 36.97987 21.79124 33118 ft 542 kts 147°
2026-05-07 23:33 36.91909 21.84804 33122 ft 542 kts 147°
2026-05-07 23:33 36.85836 21.90469 33109 ft 544 kts 147°
2026-05-07 23:34 36.79784 21.96103 33118 ft 545 kts 147°
2026-05-07 23:34 36.73655 22.01798 33105 ft 544 kts 147°
2026-05-07 23:35 36.67616 22.07398 33114 ft 544 kts 147°
2026-05-07 23:35 36.61538 22.13021 33112 ft 544 kts 147°
2026-05-07 23:36 36.55474 22.18621 33115 ft 544 kts 146°
2026-05-07 23:36 36.49437 22.24186 33118 ft 541 kts 147°
2026-05-07 23:37 36.43342 22.29791 33121 ft 544 kts 147°
2026-05-07 23:37 36.37275 22.35361 33123 ft 544 kts 146°
2026-05-07 23:38 36.31208 22.40920 33126 ft 542 kts 146°
2026-05-07 23:38 36.25133 22.46474 33129 ft 543 kts 146°
2026-05-07 23:39 36.19054 22.52021 33126 ft 543 kts 146°
2026-05-07 23:39 36.12964 22.57567 33130 ft 543 kts 146°
2026-05-07 23:40 36.06931 22.63051 33136 ft 542 kts 146°
2026-05-07 23:40 36.00814 22.68600 33122 ft 543 kts 146°
2026-05-07 23:41 35.94751 22.74089 33131 ft 541 kts 146°
2026-05-07 23:41 35.88668 22.79587 33126 ft 543 kts 146°
2026-05-07 23:42 35.82578 22.85079 33125 ft 544 kts 146°
2026-05-07 23:42 35.76468 22.90578 33128 ft 543 kts 146°
2026-05-07 23:43 35.70375 22.96052 33130 ft 544 kts 146°
2026-05-07 23:43 35.64266 23.01530 33126 ft 545 kts 146°
2026-05-07 23:44 35.58171 23.06986 33128 ft 545 kts 146°
2026-05-07 23:44 35.52056 23.12447 33132 ft 544 kts 146°
2026-05-07 23:45 35.45937 23.17901 33132 ft 544 kts 146°
2026-05-07 23:45 35.39783 23.23377 33134 ft 543 kts 146°
2026-05-07 23:46 35.33655 23.28818 33134 ft 546 kts 146°
2026-05-07 23:46 35.27508 23.34266 33139 ft 544 kts 146°
2026-05-07 23:47 35.21390 23.39678 33146 ft 546 kts 146°
2026-05-07 23:47 35.15220 23.45126 33147 ft 545 kts 146°
2026-05-07 23:48 35.09069 23.50546 33147 ft 547 kts 146°
2026-05-07 23:48 35.02929 23.55947 33147 ft 544 kts 146°
2026-05-07 23:49 34.96763 23.61360 33154 ft 547 kts 146°
2026-05-07 23:49 34.90590 23.66770 33138 ft 544 kts 147°
2026-05-07 23:50 34.84425 23.72162 33134 ft 546 kts 146°
2026-05-07 23:50 34.78296 23.77512 33144 ft 546 kts 146°
2026-05-07 23:51 34.72137 23.82879 33138 ft 544 kts 147°
2026-05-07 23:51 34.65982 23.88232 33144 ft 547 kts 146°
2026-05-07 23:52 34.59782 23.93614 33146 ft 546 kts 146°
2026-05-07 23:52 34.53617 23.98956 33149 ft 547 kts 146°
2026-05-07 23:53 34.47450 24.04290 33149 ft 545 kts 146°
2026-05-07 23:53 34.41230 24.09659 33151 ft 546 kts 146°
2026-05-07 23:54 34.35087 24.14952 33146 ft 546 kts 146°
2026-05-07 23:54 34.28885 24.20286 33147 ft 545 kts 146°
2026-05-07 23:55 34.22723 24.25576 33150 ft 546 kts 146°
2026-05-07 23:55 34.16555 24.30861 33148 ft 545 kts 146°
2026-05-07 23:56 34.10371 24.36150 33147 ft 544 kts 146°
2026-05-07 23:56 34.04223 24.41399 33148 ft 544 kts 146°
2026-05-07 23:57 33.98064 24.46717 33141 ft 543 kts 141°
2026-05-07 23:57 33.92448 24.52801 33148 ft 544 kts 137°
2026-05-07 23:58 33.86897 24.58914 33137 ft 543 kts 138°
2026-05-07 23:58 33.81282 24.65023 33139 ft 543 kts 139°
2026-05-07 23:59 33.75663 24.71088 33130 ft 544 kts 139°
2026-05-07 23:59 33.70047 24.77119 33130 ft 542 kts 139°
2026-05-08 00:00 33.64423 24.83136 33133 ft 542 kts 139°
2026-05-08 00:00 33.58808 24.89125 33134 ft 543 kts 139°
2026-05-08 00:01 33.53189 24.95105 33136 ft 541 kts 139°
2026-05-08 00:01 33.47554 25.01089 33136 ft 541 kts 139°
2026-05-08 00:02 33.41889 25.07092 33138 ft 544 kts 139°
2026-05-08 00:02 33.36213 25.13096 33140 ft 543 kts 139°
2026-05-08 00:03 33.30534 25.19092 33141 ft 542 kts 139°
2026-05-08 00:03 33.24845 25.25086 33142 ft 546 kts 139°
2026-05-08 00:04 33.19167 25.31060 33144 ft 544 kts 139°
2026-05-08 00:04 33.13459 25.37052 33145 ft 546 kts 139°
2026-05-08 00:05 33.07796 25.42988 33146 ft 546 kts 139°
2026-05-08 00:05 33.02079 25.48968 33149 ft 549 kts 138°
2026-05-08 00:06 32.96359 25.54942 33151 ft 547 kts 139°
2026-05-08 00:06 32.90644 25.60900 33149 ft 549 kts 138°
2026-05-08 00:07 32.84922 25.66854 33130 ft 549 kts 139°
2026-05-08 00:07 32.79157 25.72842 33128 ft 548 kts 139°
2026-05-08 00:08 32.73421 25.78789 33130 ft 548 kts 138°
2026-05-08 00:08 32.67670 25.84742 33132 ft 550 kts 139°
2026-05-08 00:09 32.61933 25.90669 33134 ft 550 kts 138°
2026-05-08 00:09 32.56135 25.96650 33136 ft 551 kts 138°
2026-05-08 00:10 32.50388 26.02566 33137 ft 551 kts 138°
2026-05-08 00:10 32.44600 26.08515 33140 ft 551 kts 137°
2026-05-08 00:11 32.38832 26.14432 33141 ft 550 kts 138°
2026-05-08 00:11 32.33010 26.20395 33144 ft 552 kts 137°
2026-05-08 00:12 32.27219 26.26314 33148 ft 552 kts 137°
2026-05-08 00:12 32.21456 26.32196 33150 ft 552 kts 137°
2026-05-08 00:13 32.15648 26.38112 33152 ft 551 kts 137°
2026-05-08 00:13 32.09822 26.44038 33157 ft 552 kts 137°
2026-05-08 00:14 32.03999 26.49949 33157 ft 553 kts 137°
2026-05-08 00:14 31.98213 26.55813 33163 ft 552 kts 137°
2026-05-08 00:15 31.92361 26.61733 33162 ft 551 kts 137°
2026-05-08 00:15 31.86550 26.67602 33140 ft 553 kts 137°
2026-05-08 00:16 31.80717 26.73482 33137 ft 552 kts 137°
2026-05-08 00:16 31.74857 26.79379 33141 ft 552 kts 137°
2026-05-08 00:17 31.69031 26.85233 33142 ft 553 kts 137°
2026-05-08 00:17 31.63124 26.91158 33144 ft 553 kts 137°
2026-05-08 00:18 31.57289 26.97000 33147 ft 554 kts 137°
2026-05-08 00:18 31.51450 27.02836 33152 ft 555 kts 137°
2026-05-08 00:19 31.45586 27.08687 33155 ft 554 kts 137°
2026-05-08 00:19 31.39726 27.14524 33161 ft 552 kts 137°
2026-05-08 00:20 31.33836 27.20288 33158 ft 554 kts 141°
2026-05-08 00:20 31.27124 27.24768 33171 ft 558 kts 154°
2026-05-08 00:21 31.20144 27.28610 33168 ft 556 kts 154°
2026-05-08 00:21 31.13093 27.32455 33166 ft 557 kts 154°
2026-05-08 00:22 31.06081 27.36264 33165 ft 557 kts 154°
2026-05-08 00:22 30.99048 27.40072 33161 ft 556 kts 154°
2026-05-08 00:23 30.92245 27.44295 33162 ft 555 kts 142°
2026-05-08 00:23 30.86149 27.49810 33147 ft 555 kts 139°
2026-05-08 00:24 30.80140 27.55391 33150 ft 553 kts 139°
2026-05-08 00:24 30.74160 27.60933 33150 ft 555 kts 139°
2026-05-08 00:25 30.68119 27.66519 33144 ft 555 kts 139°
2026-05-08 00:25 30.62064 27.72107 33145 ft 556 kts 139°
2026-05-08 00:26 30.56005 27.77689 33146 ft 558 kts 139°
2026-05-08 00:26 30.49950 27.83256 33152 ft 557 kts 139°
2026-05-08 00:27 30.43876 27.88832 33149 ft 557 kts 139°
2026-05-08 00:27 30.37815 27.94387 33150 ft 559 kts 139°
2026-05-08 00:28 30.31724 27.99960 33145 ft 558 kts 139°
2026-05-08 00:28 30.25628 28.05529 33147 ft 559 kts 139°
2026-05-08 00:29 30.19530 28.11090 33145 ft 560 kts 139°
2026-05-08 00:29 30.13434 28.16640 33144 ft 558 kts 139°
2026-05-08 00:30 30.07339 28.22181 33144 ft 558 kts 139°
2026-05-08 00:30 30.01252 28.27705 33141 ft 558 kts 139°
2026-05-08 00:31 29.95141 28.33241 33144 ft 558 kts 139°
2026-05-08 00:31 29.89034 28.38772 33130 ft 558 kts 137°
2026-05-08 00:32 29.83749 28.45138 33129 ft 548 kts 122°
2026-05-08 00:32 29.79107 28.52074 33123 ft 549 kts 122°
2026-05-08 00:33 29.74462 28.59021 33122 ft 546 kts 122°
2026-05-08 00:33 29.69838 28.65922 33117 ft 547 kts 122°
2026-05-08 00:34 29.65211 28.72809 33113 ft 546 kts 123°
2026-05-08 00:34 29.60557 28.79727 33121 ft 551 kts 122°
2026-05-08 00:35 29.55910 28.86619 33117 ft 545 kts 122°
2026-05-08 00:35 29.51241 28.93535 33112 ft 546 kts 122°
2026-05-08 00:36 29.46603 29.00391 33118 ft 548 kts 122°
2026-05-08 00:36 29.41699 29.07199 33114 ft 553 kts 131°
2026-05-08 00:37 29.35739 29.12794 33118 ft 559 kts 139°
2026-05-08 00:38 29.26444 29.20864 33118 ft 562 kts 140°
2026-05-08 00:38 29.20195 29.26277 33115 ft 560 kts 140°
2026-05-08 00:39 29.14019 29.31620 33116 ft 560 kts 140°
2026-05-08 00:39 29.07726 29.36955 33461 ft 567 kts 141°
2026-05-08 00:39 29.04551 29.39589 34156 ft 563 kts 141°
2026-05-08 00:40 29.01383 29.42215 34933 ft 557 kts 141°
2026-05-08 00:40 28.98250 29.44814 35103 ft 560 kts 141°
2026-05-08 00:40 28.95124 29.47406 35113 ft 559 kts 141°
2026-05-08 00:41 28.88855 29.52601 35099 ft 556 kts 141°
2026-05-08 00:41 28.82605 29.57775 35089 ft 557 kts 141°
2026-05-08 00:42 28.76278 29.63008 35083 ft 558 kts 140°
2026-05-08 00:42 28.70042 29.68156 35078 ft 557 kts 141°
2026-05-08 00:43 28.63773 29.73325 35075 ft 557 kts 141°
2026-05-08 00:43 28.57472 29.78513 35073 ft 556 kts 141°
2026-05-08 00:44 28.51228 29.83646 35076 ft 558 kts 141°
2026-05-08 00:44 28.44901 29.88840 35073 ft 557 kts 141°
2026-05-08 00:45 28.38683 29.93937 35074 ft 557 kts 141°
2026-05-08 00:45 28.32391 29.99088 35073 ft 556 kts 142°
2026-05-08 00:46 28.26080 30.04246 35076 ft 558 kts 141°
2026-05-08 00:46 28.19807 30.09364 35076 ft 557 kts 141°
2026-05-08 00:47 28.13547 30.14465 35068 ft 554 kts 141°
2026-05-08 00:47 28.07248 30.19591 35067 ft 556 kts 142°
2026-05-08 00:48 28.00986 30.24677 35060 ft 553 kts 141°
2026-05-08 00:48 27.94727 30.29756 35060 ft 553 kts 141°
2026-05-08 00:49 27.88496 30.34803 35047 ft 557 kts 141°
2026-05-08 00:49 27.82176 30.39915 35038 ft 554 kts 141°
2026-05-08 00:50 27.75963 30.44933 35039 ft 553 kts 141°
2026-05-08 00:50 27.69673 30.50008 35032 ft 557 kts 142°
2026-05-08 00:51 27.63382 30.55073 35032 ft 554 kts 142°
2026-05-08 00:51 27.57124 30.60106 35021 ft 553 kts 141°
2026-05-08 00:52 27.50833 30.65160 35026 ft 554 kts 142°
2026-05-08 00:52 27.44559 30.70191 35012 ft 552 kts 143°
2026-05-08 00:53 27.38277 30.75221 35014 ft 554 kts 143°
2026-05-08 00:53 27.32045 30.80205 35020 ft 556 kts 143°
2026-05-08 00:54 27.25698 30.85273 35025 ft 552 kts 143°
2026-05-08 00:54 27.19485 30.90227 35029 ft 553 kts 143°
2026-05-08 00:55 27.13227 30.95210 35036 ft 553 kts 143°
2026-05-08 00:55 27.06918 31.00226 35039 ft 551 kts 142°
2026-05-08 00:56 27.01198 31.05875 35036 ft 550 kts 127°
2026-05-08 00:56 26.96381 31.12465 35040 ft 544 kts 124°
2026-05-08 00:57 26.91621 31.19054 35037 ft 545 kts 124°
2026-05-08 00:57 26.86840 31.25649 35013 ft 548 kts 125°
2026-05-08 00:58 26.82042 31.32248 35008 ft 548 kts 125°
2026-05-08 00:58 26.77239 31.38839 35006 ft 547 kts 125°
2026-05-08 00:59 26.72436 31.45418 34996 ft 547 kts 125°
2026-05-08 00:59 26.67631 31.51990 34994 ft 548 kts 125°
2026-05-08 01:00 26.62819 31.58558 35007 ft 548 kts 125°
2026-05-08 01:00 26.57975 31.65162 34998 ft 550 kts 126°
2026-05-08 01:01 26.53163 31.71710 34986 ft 546 kts 126°
2026-05-08 01:01 26.48303 31.78318 34977 ft 552 kts 126°
2026-05-08 01:02 26.43456 31.84894 34980 ft 549 kts 126°
2026-05-08 01:02 26.38630 31.91434 34984 ft 547 kts 126°
2026-05-08 01:03 26.33767 31.98015 34986 ft 549 kts 126°
2026-05-08 01:03 26.28945 32.04530 34972 ft 548 kts 127°
2026-05-08 01:04 26.24075 32.11100 34976 ft 550 kts 127°
2026-05-08 01:04 26.19228 32.17630 34983 ft 546 kts 126°
2026-05-08 01:05 26.14363 32.24176 34986 ft 551 kts 127°
2026-05-08 01:05 26.09504 32.30702 34976 ft 545 kts 127°
2026-05-08 01:06 26.04685 32.37165 34965 ft 547 kts 127°
2026-05-08 01:06 25.99861 32.43628 34958 ft 544 kts 127°
2026-05-08 01:07 25.95005 32.50125 34962 ft 546 kts 127°
2026-05-08 01:07 25.90156 32.56601 34958 ft 544 kts 127°
2026-05-08 01:08 25.85334 32.63033 34947 ft 544 kts 127°
2026-05-08 01:08 25.80508 32.69461 34927 ft 542 kts 128°
2026-05-08 01:09 25.75670 32.75903 34923 ft 546 kts 127°
2026-05-08 01:09 25.71386 32.82762 34920 ft 544 kts 120°
2026-05-08 01:10 25.67236 32.89748 34933 ft 544 kts 121°
2026-05-08 01:10 25.63068 32.96745 34933 ft 543 kts 121°
2026-05-08 01:11 25.58894 33.03733 34955 ft 546 kts 121°
2026-05-08 01:11 25.54718 33.10708 34937 ft 546 kts 121°
2026-05-08 01:12 25.50522 33.17704 34922 ft 548 kts 122°
2026-05-08 01:12 25.46314 33.24708 34943 ft 544 kts 121°
2026-05-08 01:13 25.42125 33.31669 34936 ft 545 kts 122°
2026-05-08 01:13 25.37975 33.38553 34969 ft 541 kts 122°
2026-05-08 01:14 25.33776 33.45510 34949 ft 541 kts 122°
2026-05-08 01:14 25.29619 33.52388 34950 ft 542 kts 122°
2026-05-08 01:15 25.25456 33.59269 34968 ft 539 kts 122°
2026-05-08 01:15 25.21277 33.66166 34962 ft 540 kts 123°
2026-05-08 01:16 25.17113 33.73028 34953 ft 539 kts 123°
2026-05-08 01:16 25.12934 33.79905 34962 ft 539 kts 123°
2026-05-08 01:17 25.08803 33.86691 34951 ft 535 kts 123°
2026-05-08 01:17 25.04682 33.93454 34972 ft 532 kts 123°
2026-05-08 01:18 25.00569 34.00193 34961 ft 531 kts 124°
2026-05-08 01:18 24.96447 34.06938 35185 ft 532 kts 123°
2026-05-08 01:18 24.94392 34.10298 35002 ft 535 kts 123°
2026-05-08 01:19 24.92310 34.13699 34989 ft 528 kts 123°
2026-05-08 01:19 24.88189 34.20422 34984 ft 532 kts 123°
2026-05-08 01:20 24.84076 34.27123 34985 ft 531 kts 123°
2026-05-08 01:20 24.79936 34.33859 34978 ft 536 kts 124°
2026-05-08 01:21 24.75783 34.40608 34990 ft 532 kts 124°
2026-05-08 01:21 24.71613 34.47373 34980 ft 534 kts 124°
2026-05-08 01:22 24.67430 34.54151 35000 ft 537 kts 124°
2026-05-08 01:22 24.63227 34.60952 34973 ft 535 kts 124°
2026-05-08 01:23 24.59079 34.67654 34973 ft 534 kts 124°
2026-05-08 01:23 24.54895 34.74404 34965 ft 535 kts 126°
2026-05-08 01:24 24.50696 34.81171 34974 ft 538 kts 126°
2026-05-08 01:24 24.46505 34.87915 34963 ft 534 kts 126°
2026-05-08 01:25 24.42305 34.94663 34960 ft 537 kts 126°
2026-05-08 01:25 24.38098 35.01414 34988 ft 535 kts 126°
2026-05-08 01:26 24.33918 35.08110 34978 ft 535 kts 126°
2026-05-08 01:26 24.29723 35.14824 34968 ft 535 kts 126°
2026-05-08 01:27 24.25551 35.21492 34955 ft 532 kts 126°
2026-05-08 01:27 24.21332 35.28223 34947 ft 535 kts 127°
2026-05-08 01:28 24.17131 35.34920 34930 ft 533 kts 127°
2026-05-08 01:28 24.12950 35.41576 34929 ft 531 kts 127°
2026-05-08 01:29 24.08741 35.48264 34922 ft 534 kts 127°
2026-05-08 01:29 24.04560 35.54901 34925 ft 531 kts 128°
2026-05-08 01:30 24.00375 35.61533 34920 ft 534 kts 128°
2026-05-08 01:30 23.96185 35.68167 34895 ft 528 kts 128°
2026-05-08 01:31 23.91989 35.74793 34892 ft 532 kts 128°
2026-05-08 01:31 23.87792 35.81412 34894 ft 530 kts 128°
2026-05-08 01:32 23.83599 35.88016 34892 ft 528 kts 128°
2026-05-08 01:32 23.79448 35.94546 34897 ft 526 kts 128°
2026-05-08 01:33 23.75276 36.01100 34886 ft 526 kts 129°
2026-05-08 01:33 23.71113 36.07632 34887 ft 523 kts 129°
2026-05-08 01:34 23.66946 36.14161 34889 ft 523 kts 129°
2026-05-08 01:34 23.62822 36.20617 34890 ft 522 kts 129°
2026-05-08 01:35 23.58668 36.27108 34888 ft 523 kts 129°
2026-05-08 01:35 23.54488 36.33632 34890 ft 522 kts 130°
2026-05-08 01:36 23.50353 36.40080 34888 ft 518 kts 130°
2026-05-08 01:36 23.46219 36.46513 34888 ft 522 kts 131°
2026-05-08 01:37 23.42084 36.52943 34887 ft 522 kts 131°
2026-05-08 01:37 23.37926 36.59401 34881 ft 516 kts 130°
2026-05-08 01:38 23.33807 36.65788 34882 ft 521 kts 131°
2026-05-08 01:38 23.29692 36.72166 34867 ft 514 kts 131°
2026-05-08 01:39 23.25572 36.78540 34867 ft 513 kts 132°
2026-05-08 01:39 23.21452 36.84904 34868 ft 516 kts 131°
2026-05-08 01:40 23.17354 36.91230 34867 ft 512 kts 132°
2026-05-08 01:40 23.13260 36.97539 34867 ft 513 kts 132°
2026-05-08 01:41 23.09156 37.03859 34863 ft 511 kts 133°
2026-05-08 01:41 23.05073 37.10138 34861 ft 508 kts 133°
2026-05-08 01:42 23.00973 37.16429 34862 ft 509 kts 133°
2026-05-08 01:42 22.96900 37.22652 34856 ft 505 kts 133°
2026-05-08 01:43 22.92815 37.28878 34860 ft 505 kts 133°
2026-05-08 01:43 22.88756 37.35064 34870 ft 503 kts 133°
2026-05-08 01:44 22.84715 37.41211 34876 ft 505 kts 133°
2026-05-08 01:44 22.80632 37.47417 34862 ft 502 kts 133°
2026-05-08 01:45 22.76573 37.53578 34867 ft 504 kts 133°
2026-05-08 01:45 22.72524 37.59718 34864 ft 503 kts 134°
2026-05-08 01:46 22.68471 37.65877 34864 ft 501 kts 134°
2026-05-08 01:46 22.64455 37.72012 34851 ft 501 kts 134°
2026-05-08 01:47 22.60439 37.78137 34847 ft 498 kts 134°
2026-05-08 01:47 22.56458 37.84200 34851 ft 496 kts 134°
2026-05-08 01:48 22.50445 37.93342 34841 ft 497 kts 134°
2026-05-08 01:48 22.46447 37.99411 34853 ft 498 kts 134°
2026-05-08 01:49 22.42445 38.05481 34852 ft 496 kts 134°
2026-05-08 01:49 22.38452 38.11526 34858 ft 496 kts 134°
2026-05-08 01:50 22.34467 38.17556 34852 ft 492 kts 134°
2026-05-08 01:50 22.30516 38.23525 34848 ft 492 kts 134°
2026-05-08 01:51 22.26521 38.29552 34840 ft 492 kts 134°
2026-05-08 01:51 22.22536 38.35560 34848 ft 494 kts 134°
2026-05-08 01:52 22.18574 38.41530 34850 ft 489 kts 134°
2026-05-08 01:52 22.14598 38.47510 34841 ft 491 kts 134°
2026-05-08 01:53 22.10631 38.53470 34839 ft 491 kts 134°
2026-05-08 01:53 22.06652 38.59434 34836 ft 489 kts 134°
2026-05-08 01:54 22.02712 38.65342 34839 ft 491 kts 134°
2026-05-08 01:54 21.98732 38.71307 34823 ft 487 kts 134°
2026-05-08 01:55 21.94790 38.77202 34815 ft 487 kts 134°
2026-05-08 01:55 21.90834 38.83107 34816 ft 489 kts 134°
2026-05-08 01:56 21.86860 38.89044 34833 ft 489 kts 134°
2026-05-08 01:56 21.82903 38.94946 34832 ft 486 kts 134°
2026-05-08 01:57 21.78941 39.00840 34832 ft 488 kts 134°
2026-05-08 01:57 21.74402 39.06080 34832 ft 471 kts 149°
2026-05-08 01:58 21.71753 39.08096 34830 ft 459 kts 157°
2026-05-08 01:58 21.68975 39.09666 34835 ft 452 kts 164°
2026-05-08 01:58 21.66030 39.10840 34845 ft 441 kts 171°
2026-05-08 01:58 21.63095 39.11573 34841 ft 435 kts 178°
2026-05-08 01:59 21.57077 39.11903 34835 ft 427 kts 186°
2026-05-08 01:59 21.51137 39.11775 34826 ft 429 kts 187°
2026-05-08 02:00 21.45181 39.11634 34823 ft 428 kts 187°
2026-05-08 02:00 21.39210 39.11488 34825 ft 427 kts 187°
2026-05-08 02:01 21.33271 39.11339 34811 ft 427 kts 187°
2026-05-08 02:01 21.27286 39.11188 34811 ft 426 kts 187°
2026-05-08 02:02 21.21358 39.11038 34806 ft 429 kts 187°
2026-05-08 02:02 21.15379 39.10886 34811 ft 428 kts 187°
2026-05-08 02:03 21.09397 39.10734 34803 ft 428 kts 187°
2026-05-08 02:03 21.03438 39.10583 34804 ft 429 kts 187°
2026-05-08 02:04 20.97454 39.10431 34811 ft 429 kts 187°
2026-05-08 02:04 20.91512 39.10281 34799 ft 428 kts 187°
2026-05-08 02:05 20.85508 39.10128 34808 ft 430 kts 187°
2026-05-08 02:05 20.79519 39.09977 34814 ft 431 kts 187°
2026-05-08 02:06 20.73532 39.09825 34813 ft 433 kts 187°
2026-05-08 02:06 20.67525 39.09674 34811 ft 430 kts 187°
2026-05-08 02:07 20.61515 39.09523 34806 ft 431 kts 187°
2026-05-08 02:07 20.55509 39.09371 34811 ft 435 kts 187°
2026-05-08 02:08 20.49439 39.09219 34802 ft 433 kts 187°
2026-05-08 02:08 20.43412 39.09067 34805 ft 433 kts 187°
2026-05-08 02:09 20.37353 39.08915 34802 ft 434 kts 187°
2026-05-08 02:09 20.31319 39.08763 34799 ft 434 kts 187°
2026-05-08 02:10 20.25254 39.08611 34799 ft 436 kts 187°
2026-05-08 02:10 20.19167 39.08459 34799 ft 435 kts 187°
2026-05-08 02:11 20.13122 39.08307 34801 ft 437 kts 187°
2026-05-08 02:11 20.07041 39.08155 34794 ft 436 kts 187°
2026-05-08 02:12 20.00953 39.08003 34798 ft 437 kts 187°
2026-05-08 02:12 19.94824 39.07849 34794 ft 438 kts 186°
2026-05-08 02:13 19.88704 39.07697 34802 ft 439 kts 186°
2026-05-08 02:13 19.82616 39.07545 34806 ft 439 kts 186°
2026-05-08 02:14 19.76491 39.07393 34810 ft 439 kts 186°
2026-05-08 02:14 19.70381 39.07240 34809 ft 440 kts 186°
2026-05-08 02:15 19.64237 39.07087 34808 ft 439 kts 186°
2026-05-08 02:15 19.58135 39.06936 34805 ft 441 kts 186°
2026-05-08 02:16 19.51994 39.06783 34803 ft 440 kts 186°
2026-05-08 02:16 19.45853 39.06630 34802 ft 442 kts 186°
2026-05-08 02:17 19.39703 39.06477 34804 ft 441 kts 186°
2026-05-08 02:17 19.33544 39.06325 34802 ft 440 kts 186°
2026-05-08 02:18 19.27412 39.06173 34803 ft 441 kts 186°
2026-05-08 02:18 19.21267 39.06021 34801 ft 442 kts 186°
2026-05-08 02:19 19.15089 39.05868 34802 ft 442 kts 186°
2026-05-08 02:19 19.08930 39.05641 34799 ft 442 kts 188°
2026-05-08 02:20 19.02818 39.05284 34801 ft 441 kts 188°
2026-05-08 02:20 18.96679 39.04932 34800 ft 441 kts 188°
2026-05-08 02:21 18.90517 39.04583 34802 ft 444 kts 188°
2026-05-08 02:21 18.84344 39.04238 34814 ft 443 kts 187°
2026-05-08 02:22 18.78179 39.03895 34816 ft 443 kts 188°
2026-05-08 02:22 18.72003 39.03551 34818 ft 444 kts 187°
2026-05-08 02:23 18.65852 39.03210 34817 ft 444 kts 188°
2026-05-08 02:23 18.59639 39.02865 34815 ft 445 kts 187°
2026-05-08 02:24 18.53454 39.02523 34818 ft 445 kts 187°
2026-05-08 02:24 18.47237 39.02179 34816 ft 444 kts 187°
2026-05-08 02:25 18.41043 39.01836 34820 ft 446 kts 187°
2026-05-08 02:25 18.34873 39.01495 34818 ft 446 kts 187°
2026-05-08 02:26 18.28635 39.01150 34815 ft 447 kts 187°
2026-05-08 02:26 18.22400 39.00807 34818 ft 447 kts 187°
2026-05-08 02:27 18.16180 39.00465 34819 ft 447 kts 187°
2026-05-08 02:27 18.09952 39.00235 34828 ft 449 kts 186°
2026-05-08 02:28 18.03698 39.00017 34824 ft 449 kts 186°
2026-05-08 02:28 17.97407 38.99795 34824 ft 449 kts 186°
2026-05-08 02:29 17.91177 38.99572 34819 ft 450 kts 186°
2026-05-08 02:29 17.84895 38.99347 34829 ft 451 kts 186°
2026-05-08 02:30 17.78599 38.99122 34831 ft 451 kts 186°
2026-05-08 02:30 17.72321 38.98896 34830 ft 451 kts 186°
2026-05-08 02:31 17.66045 38.98672 34829 ft 451 kts 186°
2026-05-08 02:31 17.59773 38.98447 34827 ft 451 kts 186°
2026-05-08 02:32 17.53469 38.98220 34829 ft 452 kts 186°
2026-05-08 02:32 17.47180 38.97995 34826 ft 451 kts 186°
2026-05-08 02:33 17.40877 38.97769 34828 ft 453 kts 186°
2026-05-08 02:33 17.34573 38.97538 34825 ft 454 kts 186°
2026-05-08 02:34 17.28274 38.97308 34827 ft 452 kts 186°
2026-05-08 02:34 17.21963 38.97077 34828 ft 452 kts 186°
2026-05-08 02:35 17.15665 38.96846 34826 ft 453 kts 186°
2026-05-08 02:35 17.09347 38.96616 34828 ft 453 kts 186°
2026-05-08 02:36 17.03036 38.96386 34826 ft 453 kts 186°
2026-05-08 02:36 16.96708 38.96155 34830 ft 455 kts 186°
2026-05-08 02:37 16.90376 38.95925 34822 ft 455 kts 186°
2026-05-08 02:37 16.84022 38.95694 34857 ft 455 kts 186°
2026-05-08 02:38 16.77701 38.95464 34848 ft 455 kts 186°
2026-05-08 02:38 16.71321 38.95232 34856 ft 456 kts 186°
2026-05-08 02:39 16.65006 38.95003 34870 ft 456 kts 186°
2026-05-08 02:39 16.58623 38.94772 34872 ft 457 kts 186°
2026-05-08 02:40 16.52259 38.94541 34872 ft 456 kts 186°
2026-05-08 02:40 16.45893 38.94310 34886 ft 458 kts 186°
2026-05-08 02:41 16.39513 38.94079 34883 ft 457 kts 186°
2026-05-08 02:41 16.33108 38.93847 34900 ft 459 kts 186°
2026-05-08 02:42 16.26717 38.93617 34894 ft 458 kts 186°
2026-05-08 02:42 16.20343 38.93386 34906 ft 460 kts 186°
2026-05-08 02:43 16.13961 38.93155 34917 ft 459 kts 186°
2026-05-08 02:43 16.07500 38.92922 34916 ft 460 kts 186°
2026-05-08 02:44 16.01112 38.92691 34952 ft 461 kts 186°
2026-05-08 02:44 15.94690 38.92460 34968 ft 461 kts 186°
2026-05-08 02:45 15.88262 38.92229 34974 ft 460 kts 186°
2026-05-08 02:45 15.81877 38.91999 34995 ft 461 kts 186°
2026-05-08 02:46 15.75411 38.91766 34979 ft 461 kts 186°
2026-05-08 02:46 15.68988 38.91535 35035 ft 462 kts 186°
2026-05-08 02:47 15.62584 38.91305 35099 ft 461 kts 185°
2026-05-08 02:47 15.56140 38.91074 35136 ft 461 kts 186°
2026-05-08 02:48 15.49722 38.90844 35207 ft 462 kts 185°
2026-05-08 02:48 15.43279 38.90612 35240 ft 462 kts 186°
2026-05-08 02:49 15.36845 38.90382 35270 ft 462 kts 185°
2026-05-08 02:49 15.30425 38.90152 35283 ft 462 kts 185°
2026-05-08 02:50 15.23970 38.90032 35308 ft 464 kts 183°
2026-05-08 02:50 15.17489 38.90045 35320 ft 463 kts 183°
2026-05-08 02:51 15.11033 38.90050 35316 ft 465 kts 183°
2026-05-08 02:51 15.04513 38.90049 35320 ft 465 kts 183°
2026-05-08 02:52 14.98048 38.90046 35320 ft 466 kts 184°
2026-05-08 02:52 14.91588 38.90041 35315 ft 466 kts 183°
2026-05-08 02:53 14.85074 38.90035 35311 ft 467 kts 184°
2026-05-08 02:53 14.78562 38.90030 35309 ft 467 kts 183°
2026-05-08 02:54 14.72056 38.90023 35299 ft 466 kts 183°
2026-05-08 02:54 14.65566 38.90016 35294 ft 467 kts 183°
2026-05-08 02:55 14.55784 38.90031 35258 ft 469 kts 180°
2026-05-08 02:56 14.49343 38.91416 35262 ft 479 kts 162°
2026-05-08 02:56 14.43517 38.94814 35291 ft 486 kts 148°
2026-05-08 02:57 14.38033 38.98919 35302 ft 486 kts 147°
2026-05-08 02:57 14.32567 39.03014 35327 ft 487 kts 147°
2026-05-08 02:58 14.27066 39.07127 35360 ft 486 kts 147°
2026-05-08 02:58 14.21579 39.11225 35387 ft 486 kts 147°
2026-05-08 02:59 14.16113 39.15302 35365 ft 486 kts 147°
2026-05-08 02:59 14.10636 39.19384 35327 ft 486 kts 147°
2026-05-08 03:00 14.05136 39.23480 35296 ft 486 kts 147°
2026-05-08 03:00 13.99652 39.27561 35282 ft 486 kts 147°
2026-05-08 03:01 13.94183 39.31628 35281 ft 487 kts 147°
2026-05-08 03:01 13.88683 39.35717 35296 ft 486 kts 147°
2026-05-08 03:02 13.83190 39.39798 35310 ft 488 kts 147°
2026-05-08 03:02 13.77734 39.43848 35302 ft 486 kts 147°
2026-05-08 03:03 13.72256 39.47913 35287 ft 486 kts 147°
2026-05-08 03:03 13.66732 39.52009 35286 ft 486 kts 147°
2026-05-08 03:04 13.61241 39.56078 35303 ft 486 kts 147°
2026-05-08 03:04 13.55782 39.60121 35303 ft 486 kts 147°
2026-05-08 03:05 13.50291 39.64187 35300 ft 486 kts 147°
2026-05-08 03:05 13.44817 39.68236 35282 ft 486 kts 147°
2026-05-08 03:06 13.39304 39.72313 35261 ft 486 kts 147°
2026-05-08 03:06 13.33817 39.76367 35246 ft 486 kts 147°
2026-05-08 03:07 13.28309 39.80435 35211 ft 486 kts 147°
2026-05-08 03:07 13.22845 39.84468 35174 ft 486 kts 147°
2026-05-08 03:08 13.17315 39.88547 35156 ft 486 kts 147°
2026-05-08 03:08 13.11829 39.92592 35137 ft 486 kts 147°
2026-05-08 03:09 13.06314 39.96656 35118 ft 486 kts 147°
2026-05-08 03:09 13.00841 40.00687 35110 ft 486 kts 146°
2026-05-08 03:10 12.95337 40.04738 35087 ft 486 kts 146°
2026-05-08 03:10 12.89816 40.08799 35065 ft 486 kts 146°
2026-05-08 03:11 12.84322 40.12838 35041 ft 486 kts 146°
2026-05-08 03:11 12.78812 40.16887 35000 ft 485 kts 146°
2026-05-08 03:12 12.73303 40.20933 34971 ft 486 kts 146°
2026-05-08 03:12 12.67786 40.24983 34953 ft 486 kts 146°
2026-05-08 03:13 12.62312 40.28999 34945 ft 486 kts 146°
2026-05-08 03:13 12.56809 40.33033 34928 ft 485 kts 146°
2026-05-08 03:14 12.51304 40.37068 34934 ft 485 kts 146°
2026-05-08 03:14 12.45783 40.41039 34935 ft 484 kts 150°
2026-05-08 03:15 12.39828 40.44232 34944 ft 482 kts 155°
2026-05-08 03:15 12.33851 40.47304 34947 ft 482 kts 155°
2026-05-08 03:16 12.27842 40.50393 34963 ft 482 kts 155°
2026-05-08 03:16 12.21827 40.53483 34962 ft 482 kts 155°
2026-05-08 03:17 12.15859 40.56549 34961 ft 482 kts 155°
2026-05-08 03:17 12.09835 40.59640 34957 ft 482 kts 155°
2026-05-08 03:18 12.03863 40.62705 34946 ft 481 kts 154°
2026-05-08 03:18 11.97858 40.65785 34947 ft 482 kts 155°
2026-05-08 03:19 11.91876 40.68851 34953 ft 481 kts 155°
2026-05-08 03:19 11.85889 40.71919 34946 ft 481 kts 154°
2026-05-08 03:20 11.79895 40.74988 34962 ft 481 kts 155°
2026-05-08 03:20 11.73904 40.78055 34979 ft 482 kts 155°
2026-05-08 03:21 11.67909 40.81123 34938 ft 481 kts 154°
2026-05-08 03:21 11.61913 40.84189 34938 ft 482 kts 154°
2026-05-08 03:22 11.55890 40.87267 34928 ft 481 kts 154°
2026-05-08 03:22 11.49921 40.90316 34915 ft 482 kts 154°
2026-05-08 03:23 11.43928 40.93377 34920 ft 481 kts 154°
2026-05-08 03:23 11.37909 40.96449 34903 ft 482 kts 154°
2026-05-08 03:24 11.31912 40.99507 34901 ft 482 kts 154°
2026-05-08 03:24 11.25915 41.02566 34891 ft 482 kts 154°
2026-05-08 03:25 11.19902 41.05631 34899 ft 482 kts 154°
2026-05-08 03:25 11.13907 41.08685 34905 ft 482 kts 154°
2026-05-08 03:26 11.07858 41.11765 34909 ft 482 kts 154°
2026-05-08 03:26 11.01881 41.14807 34911 ft 482 kts 154°
2026-05-08 03:27 10.95868 41.17866 34905 ft 482 kts 154°
2026-05-08 03:27 10.89857 41.20923 34896 ft 481 kts 154°
2026-05-08 03:28 10.83847 41.23977 34896 ft 482 kts 154°
2026-05-08 03:28 10.77853 41.27023 34895 ft 481 kts 154°
2026-05-08 03:29 10.71870 41.30061 34900 ft 481 kts 154°
2026-05-08 03:29 10.65862 41.33111 34906 ft 481 kts 154°
2026-05-08 03:30 10.56839 41.37687 34930 ft 481 kts 154°
2026-05-08 03:31 10.44879 41.43750 34956 ft 480 kts 154°
2026-05-08 03:32 10.35883 41.48307 34955 ft 480 kts 154°
2026-05-08 03:32 10.29909 41.51332 34953 ft 480 kts 154°
2026-05-08 03:33 10.23937 41.54354 34951 ft 480 kts 154°
2026-05-08 03:33 10.17948 41.57383 34953 ft 480 kts 154°
2026-05-08 03:34 10.11942 41.60420 34956 ft 480 kts 154°
2026-05-08 03:34 10.05950 41.63448 34960 ft 480 kts 154°
2026-05-08 03:35 9.99965 41.66471 34970 ft 480 kts 154°
2026-05-08 03:35 9.94015 41.69476 34972 ft 480 kts 154°
2026-05-08 03:36 9.88012 41.72506 35012 ft 480 kts 154°
2026-05-08 03:36 9.82006 41.75536 35025 ft 480 kts 154°
2026-05-08 03:37 9.76029 41.78551 35028 ft 480 kts 154°
2026-05-08 03:37 9.70026 41.81577 35078 ft 480 kts 154°
2026-05-08 03:38 9.64063 41.84582 35134 ft 480 kts 154°
2026-05-08 03:38 9.57966 41.87416 35183 ft 480 kts 156°
2026-05-08 03:39 9.51860 41.90200 35232 ft 481 kts 156°
2026-05-08 03:39 9.45753 41.92992 35255 ft 480 kts 156°
2026-05-08 03:40 9.39649 41.95788 35260 ft 481 kts 156°
2026-05-08 03:40 9.33574 41.98572 35266 ft 481 kts 156°
2026-05-08 03:41 9.27436 42.01385 35255 ft 482 kts 156°
2026-05-08 03:41 9.21321 42.04187 35247 ft 482 kts 156°
2026-05-08 03:42 9.15218 42.06984 35220 ft 482 kts 156°
2026-05-08 03:42 9.09092 42.09790 35226 ft 483 kts 156°
2026-05-08 03:43 9.02962 42.12597 35208 ft 482 kts 156°
2026-05-08 03:43 8.96853 42.15393 35211 ft 483 kts 156°
2026-05-08 03:44 8.90708 42.18205 35207 ft 483 kts 156°
2026-05-08 03:44 8.84597 42.21000 35193 ft 483 kts 156°
2026-05-08 03:45 8.78463 42.23805 35191 ft 483 kts 156°
2026-05-08 03:45 8.72309 42.26617 35169 ft 483 kts 156°
2026-05-08 03:46 8.66208 42.29405 35169 ft 483 kts 156°
2026-05-08 03:46 8.60054 42.32216 35171 ft 483 kts 156°
2026-05-08 03:47 8.53950 42.35003 35160 ft 483 kts 156°
2026-05-08 03:47 8.47782 42.37817 35144 ft 483 kts 156°
2026-05-08 03:48 8.41645 42.40618 35140 ft 483 kts 156°
2026-05-08 03:48 8.35525 42.43416 35127 ft 484 kts 156°
2026-05-08 03:49 8.29376 42.46227 35133 ft 483 kts 156°
2026-05-08 03:49 8.23250 42.49026 35134 ft 485 kts 156°
2026-05-08 03:50 8.17117 42.51830 35113 ft 484 kts 155°
2026-05-08 03:50 8.10963 42.54645 35099 ft 484 kts 156°
2026-05-08 03:51 8.04825 42.57451 35071 ft 485 kts 155°
2026-05-08 03:51 7.98646 42.60274 35059 ft 484 kts 156°
2026-05-08 03:52 7.92500 42.63082 35047 ft 483 kts 156°
2026-05-08 03:52 7.86385 42.65874 35041 ft 483 kts 156°
2026-05-08 03:53 7.80241 42.68679 35031 ft 483 kts 156°
2026-05-08 03:53 7.74135 42.71465 35024 ft 483 kts 155°
2026-05-08 03:54 7.67970 42.74278 35031 ft 483 kts 155°
2026-05-08 03:54 7.61857 42.77065 35034 ft 482 kts 156°
2026-05-08 03:55 7.55758 42.79846 35027 ft 482 kts 155°
2026-05-08 03:55 7.49603 42.82652 35030 ft 482 kts 155°
2026-05-08 03:56 7.43485 42.85439 35032 ft 482 kts 155°
2026-05-08 03:56 7.37374 42.88222 35034 ft 483 kts 155°
2026-05-08 03:57 7.31234 42.91018 35030 ft 482 kts 155°
2026-05-08 03:57 7.25131 42.93796 35023 ft 481 kts 155°
2026-05-08 03:58 7.18999 42.96587 35019 ft 483 kts 155°
2026-05-08 03:58 7.12865 42.99377 35006 ft 482 kts 155°
2026-05-08 03:59 7.06746 43.02160 35001 ft 482 kts 155°
2026-05-08 03:59 7.00645 43.04934 34980 ft 482 kts 155°
2026-05-08 04:00 6.94527 43.07717 34980 ft 481 kts 155°
2026-05-08 04:00 6.88426 43.10503 34974 ft 482 kts 155°
2026-05-08 04:01 6.82299 43.13301 34966 ft 481 kts 155°
2026-05-08 04:01 6.76195 43.16087 34966 ft 480 kts 155°
2026-05-08 04:02 6.70117 43.18859 34961 ft 480 kts 155°
2026-05-08 04:02 6.63990 43.21653 34951 ft 480 kts 155°
2026-05-08 04:03 6.57917 43.24423 34944 ft 481 kts 155°
2026-05-08 04:03 6.48766 43.28593 34926 ft 481 kts 155°
2026-05-08 04:04 6.42692 43.31361 34928 ft 479 kts 155°
2026-05-08 04:04 6.36598 43.34136 34917 ft 481 kts 155°
2026-05-08 04:05 6.30490 43.36918 34909 ft 481 kts 155°
2026-05-08 04:05 6.24387 43.39696 34906 ft 481 kts 155°
2026-05-08 04:06 6.18258 43.42485 34909 ft 480 kts 155°
2026-05-08 04:06 6.12187 43.45248 34893 ft 481 kts 155°
2026-05-08 04:07 6.06063 43.48033 34894 ft 482 kts 155°
2026-05-08 04:07 5.99952 43.50813 34889 ft 481 kts 155°
2026-05-08 04:08 5.93858 43.53584 34897 ft 481 kts 155°
2026-05-08 04:08 5.87770 43.56352 34896 ft 481 kts 155°
2026-05-08 04:09 5.81657 43.59129 34898 ft 479 kts 155°
2026-05-08 04:09 5.75570 43.61895 34894 ft 480 kts 155°
2026-05-08 04:10 5.69466 43.64669 34897 ft 480 kts 155°
2026-05-08 04:10 5.63390 43.67432 34912 ft 480 kts 155°
2026-05-08 04:11 5.57299 43.70208 34924 ft 479 kts 155°
2026-05-08 04:11 5.51231 43.72973 34939 ft 478 kts 155°
2026-05-08 04:12 5.45165 43.75736 34942 ft 479 kts 155°
2026-05-08 04:12 5.39073 43.78510 34933 ft 479 kts 155°
2026-05-08 04:13 5.33012 43.81269 34926 ft 478 kts 155°
2026-05-08 04:13 5.26962 43.84023 34919 ft 479 kts 155°
2026-05-08 04:14 5.20906 43.86779 34913 ft 478 kts 155°
2026-05-08 04:14 5.14826 43.89545 34913 ft 478 kts 155°
2026-05-08 04:15 5.08747 43.92310 34917 ft 479 kts 155°
2026-05-08 04:15 5.02651 43.95082 34922 ft 478 kts 155°
2026-05-08 04:16 4.96622 43.97823 34924 ft 479 kts 155°
2026-05-08 04:16 4.90509 44.00599 34933 ft 478 kts 156°
2026-05-08 04:17 4.84450 44.03299 34944 ft 479 kts 156°
2026-05-08 04:17 4.78338 44.06020 34952 ft 478 kts 156°
2026-05-08 04:18 4.72270 44.08723 34956 ft 478 kts 156°
2026-05-08 04:18 4.66187 44.11432 34959 ft 477 kts 156°
2026-05-08 04:19 4.60109 44.14140 34962 ft 478 kts 156°
2026-05-08 04:19 4.54007 44.16857 34963 ft 476 kts 156°
2026-05-08 04:20 4.47914 44.19570 34966 ft 477 kts 156°
2026-05-08 04:20 4.41843 44.22274 34959 ft 478 kts 156°
2026-05-08 04:21 4.35747 44.24987 34954 ft 477 kts 156°
2026-05-08 04:21 4.29689 44.27683 34950 ft 477 kts 156°
2026-05-08 04:22 4.23599 44.30393 34948 ft 477 kts 156°
2026-05-08 04:22 4.17555 44.33083 34948 ft 477 kts 156°
2026-05-08 04:23 4.11469 44.35790 34950 ft 478 kts 156°
2026-05-08 04:23 4.05390 44.38493 34945 ft 477 kts 156°
2026-05-08 04:24 3.99279 44.41211 34944 ft 477 kts 156°
2026-05-08 04:24 3.93190 44.43919 34944 ft 478 kts 156°
2026-05-08 04:25 3.87098 44.46627 34947 ft 478 kts 156°
2026-05-08 04:25 3.81054 44.49313 34946 ft 478 kts 156°
2026-05-08 04:26 3.74947 44.52027 34946 ft 478 kts 156°
2026-05-08 04:26 3.68861 44.54732 34943 ft 477 kts 156°
2026-05-08 04:27 3.62762 44.57442 34942 ft 478 kts 156°
2026-05-08 04:27 3.56699 44.60136 34938 ft 478 kts 156°
2026-05-08 04:28 3.50604 44.62843 34937 ft 477 kts 156°
2026-05-08 04:28 3.44537 44.65537 34933 ft 477 kts 156°
2026-05-08 04:29 3.38442 44.68243 34933 ft 477 kts 156°
2026-05-08 04:29 3.32362 44.70942 34927 ft 478 kts 156°
2026-05-08 04:30 3.26250 44.73655 34926 ft 478 kts 156°
2026-05-08 04:30 3.20207 44.76337 34922 ft 478 kts 156°
2026-05-08 04:31 3.14106 44.79046 34919 ft 477 kts 156°
2026-05-08 04:31 3.08031 44.81741 34914 ft 478 kts 156°
2026-05-08 04:32 3.01933 44.84446 34911 ft 477 kts 156°
2026-05-08 04:32 2.95860 44.87141 34906 ft 477 kts 156°
2026-05-08 04:33 2.89742 44.89855 34900 ft 479 kts 156°
2026-05-08 04:33 2.83643 44.92560 34900 ft 479 kts 156°
2026-05-08 04:34 2.77545 44.95264 34898 ft 480 kts 156°
2026-05-08 04:34 2.71427 44.97977 34897 ft 479 kts 156°
2026-05-08 04:35 2.65338 45.00677 34892 ft 479 kts 156°
2026-05-08 04:35 2.59233 45.03383 34892 ft 480 kts 156°
2026-05-08 04:36 2.53115 45.06095 34892 ft 480 kts 156°
2026-05-08 04:36 2.46975 45.08816 34889 ft 481 kts 156°
2026-05-08 04:37 2.40830 45.11540 34888 ft 481 kts 156°
2026-05-08 04:37 2.34705 45.14254 34887 ft 481 kts 156°
2026-05-08 04:38 2.28568 45.16974 34884 ft 482 kts 156°
2026-05-08 04:38 2.22462 45.19679 34883 ft 482 kts 156°
2026-05-08 04:39 2.16278 45.22418 34879 ft 483 kts 156°
2026-05-08 04:39 2.10145 45.25135 34879 ft 482 kts 156°
2026-05-08 04:40 2.03980 45.27866 34874 ft 483 kts 156°
2026-05-08 04:40 1.97837 45.30565 34915 ft 490 kts 157°
2026-05-08 04:41 1.94651 45.31931 35413 ft 491 kts 157°
2026-05-08 04:41 1.91538 45.33266 36296 ft 484 kts 157°
2026-05-08 04:41 1.88456 45.34588 36845 ft 483 kts 157°
2026-05-08 04:41 1.85372 45.35911 36866 ft 483 kts 156°
2026-05-08 04:42 1.79199 45.38562 36870 ft 480 kts 157°
2026-05-08 04:42 1.73046 45.41204 36868 ft 479 kts 156°
2026-05-08 04:43 1.66936 45.43828 36868 ft 479 kts 157°
2026-05-08 04:43 1.60787 45.46469 36869 ft 479 kts 156°
2026-05-08 04:44 1.54646 45.49107 36869 ft 480 kts 156°
2026-05-08 04:44 1.48517 45.51740 36869 ft 480 kts 156°
2026-05-08 04:45 1.42396 45.54369 36869 ft 479 kts 156°
2026-05-08 04:45 1.36240 45.57013 36869 ft 480 kts 156°
2026-05-08 04:46 1.30078 45.59659 36869 ft 480 kts 156°
2026-05-08 04:46 1.23946 45.62293 36869 ft 480 kts 156°
2026-05-08 04:47 1.17810 45.64927 36869 ft 480 kts 156°
2026-05-08 04:47 1.11648 45.67574 36868 ft 480 kts 156°
2026-05-08 04:48 1.05494 45.70216 36869 ft 481 kts 156°
2026-05-08 04:48 0.99342 45.72857 36868 ft 481 kts 156°
2026-05-08 04:49 0.93182 45.75502 36868 ft 481 kts 156°
2026-05-08 04:49 0.87015 45.78149 36868 ft 481 kts 156°
2026-05-08 04:50 0.80861 45.80791 36869 ft 480 kts 156°
2026-05-08 04:50 0.74743 45.83418 36868 ft 481 kts 156°
2026-05-08 04:51 0.68572 45.86067 36868 ft 479 kts 156°
2026-05-08 04:51 0.62460 45.88691 36868 ft 479 kts 156°
2026-05-08 04:52 0.56320 45.91327 36869 ft 479 kts 156°
2026-05-08 04:52 0.50194 45.93993 36867 ft 478 kts 156°
2026-05-08 04:53 0.44084 45.96672 36868 ft 477 kts 156°
2026-05-08 04:53 0.37981 45.99347 36868 ft 477 kts 156°
2026-05-08 04:54 0.31878 46.02020 36867 ft 476 kts 156°
2026-05-08 04:54 0.25819 46.04674 36868 ft 477 kts 155°
2026-05-08 04:55 0.19737 46.07337 36868 ft 475 kts 156°
2026-05-08 04:55 0.13641 46.10006 36867 ft 476 kts 156°
2026-05-08 04:56 0.07595 46.12653 36868 ft 475 kts 155°
2026-05-08 04:56 0.01505 46.15319 36866 ft 474 kts 155°
2026-05-08 04:57 -0.04561 46.17974 36867 ft 475 kts 155°
2026-05-08 04:57 -0.10642 46.20637 36868 ft 475 kts 155°
2026-05-08 04:58 -0.16726 46.23301 36868 ft 475 kts 155°
2026-05-08 04:58 -0.22833 46.25943 36869 ft 475 kts 156°
2026-05-08 04:59 -0.28925 46.28536 36868 ft 476 kts 156°
2026-05-08 04:59 -0.35018 46.31131 36867 ft 475 kts 156°
2026-05-08 05:00 -0.41124 46.33733 36868 ft 477 kts 156°
2026-05-08 05:00 -0.47253 46.36347 36867 ft 476 kts 156°
2026-05-08 05:01 -0.53368 46.38954 36868 ft 476 kts 156°
2026-05-08 05:01 -0.59464 46.41555 36866 ft 476 kts 156°
2026-05-08 05:02 -0.65606 46.44175 36868 ft 477 kts 156°
2026-05-08 05:02 -0.71735 46.46790 36868 ft 476 kts 156°
2026-05-08 05:03 -0.77830 46.49390 36867 ft 477 kts 156°
2026-05-08 05:03 -0.83952 46.52002 36867 ft 476 kts 156°
2026-05-08 05:04 -0.90097 46.54623 36867 ft 477 kts 156°
2026-05-08 05:04 -0.96192 46.57223 36869 ft 477 kts 156°
2026-05-08 05:05 -1.02310 46.59834 36866 ft 477 kts 156°
2026-05-08 05:05 -1.08448 46.62453 36867 ft 478 kts 156°
2026-05-08 05:06 -1.14542 46.65053 36867 ft 478 kts 156°
2026-05-08 05:06 -1.20673 46.67670 36868 ft 477 kts 156°
2026-05-08 05:07 -1.26810 46.70289 36869 ft 477 kts 156°
2026-05-08 05:07 -1.32930 46.72900 36870 ft 478 kts 156°
2026-05-08 05:08 -1.39039 46.75508 36869 ft 478 kts 156°
2026-05-08 05:08 -1.45165 46.78122 36868 ft 478 kts 156°
2026-05-08 05:09 -1.51291 46.80737 36868 ft 479 kts 156°
2026-05-08 05:09 -1.57434 46.83360 36868 ft 479 kts 156°
2026-05-08 05:10 -1.66661 46.87299 36869 ft 479 kts 156°
2026-05-08 05:11 -1.72781 46.89912 36869 ft 479 kts 156°
2026-05-08 05:11 -1.78913 46.92530 36868 ft 479 kts 156°
2026-05-08 05:12 -1.85055 46.95152 36868 ft 479 kts 156°
2026-05-08 05:12 -1.91197 46.97775 36869 ft 479 kts 156°
2026-05-08 05:13 -1.97334 47.00396 36867 ft 479 kts 156°
2026-05-08 05:13 -2.03493 47.03027 36868 ft 480 kts 156°
2026-05-08 05:14 -2.09658 47.05660 36868 ft 479 kts 156°
2026-05-08 05:14 -2.15767 47.08270 36868 ft 479 kts 156°
2026-05-08 05:15 -2.21942 47.10906 36868 ft 479 kts 156°
2026-05-08 05:15 -2.28062 47.13521 36867 ft 479 kts 156°
2026-05-08 05:16 -2.34203 47.16146 36868 ft 479 kts 156°
2026-05-08 05:16 -2.40380 47.18786 36867 ft 479 kts 156°
2026-05-08 05:17 -2.46512 47.21407 36867 ft 480 kts 156°
2026-05-08 05:17 -2.52634 47.24023 36867 ft 480 kts 156°
2026-05-08 05:18 -2.58815 47.26666 36867 ft 479 kts 156°
2026-05-08 05:18 -2.64961 47.29293 36867 ft 479 kts 156°
2026-05-08 05:19 -2.71071 47.31905 36867 ft 479 kts 156°
2026-05-08 05:19 -2.77218 47.34534 36867 ft 480 kts 156°
2026-05-08 05:20 -2.83397 47.37176 36867 ft 479 kts 156°
2026-05-08 05:20 -2.89534 47.39801 36867 ft 480 kts 156°
2026-05-08 05:21 -2.95668 47.42425 36867 ft 480 kts 156°
2026-05-08 05:21 -3.01830 47.45061 36867 ft 479 kts 156°
2026-05-08 05:22 -3.07961 47.47684 36867 ft 480 kts 156°
2026-05-08 05:22 -3.14098 47.50310 36867 ft 479 kts 156°
2026-05-08 05:23 -3.20265 47.52949 36867 ft 479 kts 156°
2026-05-08 05:23 -3.26380 47.55566 36867 ft 479 kts 156°
2026-05-08 05:24 -3.32547 47.58207 36867 ft 479 kts 156°
2026-05-08 05:24 -3.38646 47.60818 36867 ft 479 kts 156°
2026-05-08 05:25 -3.44808 47.63456 36867 ft 479 kts 156°
2026-05-08 05:25 -3.50957 47.66090 36869 ft 479 kts 156°
2026-05-08 05:26 -3.57068 47.68707 36868 ft 479 kts 156°
2026-05-08 05:26 -3.63232 47.71347 36869 ft 479 kts 156°
2026-05-08 05:27 -3.69353 47.73970 36869 ft 479 kts 156°
2026-05-08 05:27 -3.75495 47.76602 36868 ft 479 kts 156°
2026-05-08 05:28 -3.81664 47.79246 36868 ft 479 kts 156°
2026-05-08 05:28 -3.87778 47.81866 36868 ft 479 kts 156°
2026-05-08 05:29 -3.93943 47.84509 36868 ft 480 kts 156°
2026-05-08 05:29 -4.00081 47.87141 36868 ft 479 kts 156°
2026-05-08 05:30 -4.06200 47.89765 36868 ft 479 kts 156°
2026-05-08 05:30 -4.12366 47.92410 36868 ft 479 kts 156°
2026-05-08 05:31 -4.18476 47.95031 36868 ft 479 kts 156°
2026-05-08 05:31 -4.24617 47.97665 36868 ft 479 kts 156°
2026-05-08 05:32 -4.30766 48.00297 36868 ft 479 kts 156°
2026-05-08 05:32 -4.36934 48.02939 36868 ft 480 kts 156°
2026-05-08 05:33 -4.43072 48.05569 36868 ft 479 kts 156°
2026-05-08 05:33 -4.49222 48.08205 36868 ft 480 kts 156°
2026-05-08 05:34 -4.55374 48.10841 36868 ft 480 kts 156°
2026-05-08 05:34 -4.61522 48.13477 36868 ft 480 kts 156°
2026-05-08 05:35 -4.67646 48.16102 36868 ft 480 kts 156°
2026-05-08 05:35 -4.73779 48.18732 36868 ft 480 kts 156°
2026-05-08 05:36 -4.79953 48.21380 36868 ft 480 kts 156°
2026-05-08 05:36 -4.86087 48.24011 36868 ft 480 kts 156°
2026-05-08 05:37 -4.92249 48.26656 36868 ft 480 kts 156°
2026-05-08 05:37 -4.98389 48.29291 36868 ft 480 kts 156°
2026-05-08 05:38 -5.04576 48.31947 36868 ft 480 kts 156°
2026-05-08 05:38 -5.10711 48.34581 36867 ft 480 kts 156°
2026-05-08 05:39 -5.16883 48.37231 36867 ft 481 kts 156°
2026-05-08 05:39 -5.23021 48.39868 36867 ft 480 kts 156°
2026-05-08 05:40 -5.29176 48.42512 36867 ft 481 kts 156°
2026-05-08 05:40 -5.35332 48.45157 36867 ft 481 kts 156°
2026-05-08 05:41 -5.41514 48.47815 36867 ft 481 kts 156°
2026-05-08 05:41 -5.47672 48.50462 36867 ft 481 kts 156°
2026-05-08 05:42 -5.53821 48.53106 36867 ft 481 kts 156°
2026-05-08 05:42 -5.59988 48.55759 36867 ft 481 kts 156°
2026-05-08 05:43 -5.66140 48.58405 36867 ft 481 kts 156°
2026-05-08 05:43 -5.72315 48.61063 36867 ft 482 kts 156°
2026-05-08 05:44 -5.78468 48.63711 36867 ft 482 kts 156°
2026-05-08 05:44 -5.84663 48.66378 36869 ft 482 kts 156°
2026-05-08 05:45 -5.90819 48.69029 36869 ft 482 kts 156°
2026-05-08 05:45 -5.96966 48.71676 36869 ft 482 kts 156°
2026-05-08 05:46 -6.03138 48.74335 36869 ft 482 kts 156°
2026-05-08 05:46 -6.09310 48.76995 36869 ft 482 kts 156°
2026-05-08 05:47 -6.15502 48.79664 36868 ft 482 kts 156°
2026-05-08 05:47 -6.21674 48.82325 36868 ft 482 kts 156°
2026-05-08 05:48 -6.27842 48.84985 36868 ft 482 kts 156°
2026-05-08 05:48 -6.34007 48.87644 36868 ft 483 kts 156°
2026-05-08 05:49 -6.40195 48.90315 36868 ft 483 kts 156°
2026-05-08 05:49 -6.46389 48.92988 36868 ft 483 kts 156°
2026-05-08 05:50 -6.52583 48.95662 36868 ft 483 kts 156°
2026-05-08 05:50 -6.58758 48.98328 36868 ft 483 kts 156°
2026-05-08 05:51 -6.64911 49.00986 36868 ft 482 kts 156°
2026-05-08 05:51 -6.71110 49.03664 36868 ft 483 kts 156°
2026-05-08 05:52 -6.77279 49.06331 36868 ft 482 kts 156°
2026-05-08 05:52 -6.83465 49.09005 36868 ft 482 kts 156°
2026-05-08 05:53 -6.89657 49.11682 36868 ft 483 kts 156°
2026-05-08 05:53 -6.95829 49.14352 36868 ft 482 kts 156°
2026-05-08 05:54 -7.01993 49.17019 36868 ft 482 kts 156°
2026-05-08 05:54 -7.08149 49.19683 36868 ft 482 kts 156°
2026-05-08 05:55 -7.14360 49.22372 36867 ft 482 kts 155°
2026-05-08 05:55 -7.20529 49.25043 36867 ft 481 kts 156°
2026-05-08 05:56 -7.26671 49.27703 36867 ft 482 kts 156°
2026-05-08 05:56 -7.32845 49.30378 36867 ft 481 kts 156°
2026-05-08 05:57 -7.38991 49.33042 36867 ft 481 kts 156°
2026-05-08 05:57 -7.45175 49.35722 36867 ft 481 kts 155°
2026-05-08 05:58 -7.51318 49.38387 36867 ft 481 kts 156°
2026-05-08 05:58 -7.57470 49.41055 36867 ft 481 kts 156°
2026-05-08 05:59 -7.63614 49.43721 36867 ft 480 kts 156°
2026-05-08 05:59 -7.69788 49.46401 36867 ft 480 kts 156°
2026-05-08 06:00 -7.75921 49.49064 36867 ft 481 kts 156°
2026-05-08 06:00 -7.82051 49.51727 36867 ft 480 kts 156°
2026-05-08 06:01 -7.88230 49.54411 36867 ft 480 kts 156°
2026-05-08 06:01 -7.94362 49.57076 36867 ft 480 kts 156°
2026-05-08 06:02 -8.00504 49.59747 36867 ft 480 kts 156°
2026-05-08 06:02 -8.06664 49.62426 36867 ft 480 kts 156°
2026-05-08 06:03 -8.12797 49.65094 36867 ft 480 kts 156°
2026-05-08 06:03 -8.18914 49.67756 36869 ft 479 kts 156°
2026-05-08 06:04 -8.25061 49.70432 36868 ft 479 kts 156°
2026-05-08 06:04 -8.31202 49.73106 36868 ft 479 kts 156°
2026-05-08 06:05 -8.37313 49.75769 36868 ft 479 kts 156°
2026-05-08 06:05 -8.43463 49.78449 36868 ft 479 kts 156°
2026-05-08 06:06 -8.49581 49.81116 36868 ft 479 kts 156°
2026-05-08 06:06 -8.55713 49.83790 36868 ft 479 kts 156°
2026-05-08 06:07 -8.61823 49.86455 36868 ft 479 kts 156°
2026-05-08 06:07 -8.67978 49.89142 36868 ft 479 kts 156°
2026-05-08 06:08 -8.74094 49.91812 36868 ft 479 kts 156°
2026-05-08 06:08 -8.80245 49.94498 36868 ft 479 kts 156°
2026-05-08 06:09 -8.86347 49.97163 36865 ft 479 kts 156°
2026-05-08 06:09 -8.92492 49.99850 36868 ft 479 kts 156°
2026-05-08 06:10 -8.98607 50.02523 36866 ft 479 kts 156°
2026-05-08 06:10 -9.04739 50.05205 36867 ft 479 kts 156°
2026-05-08 06:11 -9.10881 50.07892 36867 ft 479 kts 156°
2026-05-08 06:11 -9.17014 50.10576 36865 ft 479 kts 156°
2026-05-08 06:12 -9.23131 50.13254 36865 ft 479 kts 156°
2026-05-08 06:12 -9.29270 50.15943 36864 ft 479 kts 156°
2026-05-08 06:13 -9.35362 50.18612 36864 ft 479 kts 156°
2026-05-08 06:13 -9.41505 50.21305 36863 ft 479 kts 155°
2026-05-08 06:14 -9.47629 50.23991 36863 ft 479 kts 155°
2026-05-08 06:14 -9.53765 50.26683 36861 ft 479 kts 155°
2026-05-08 06:15 -9.59897 50.29374 36861 ft 479 kts 155°
2026-05-08 06:15 -9.66031 50.32067 36860 ft 479 kts 155°
2026-05-08 06:16 -9.72155 50.34756 36861 ft 479 kts 155°
2026-05-08 06:16 -9.78288 50.37451 36861 ft 479 kts 155°
2026-05-08 06:17 -9.87454 50.41480 36859 ft 480 kts 155°
2026-05-08 06:17 -9.93580 50.44175 36857 ft 480 kts 155°
2026-05-08 06:18 -9.99745 50.46888 36859 ft 479 kts 155°
2026-05-08 06:18 -10.05868 50.49582 36859 ft 480 kts 155°
2026-05-08 06:19 -10.12004 50.52281 36857 ft 480 kts 155°
2026-05-08 06:19 -10.18122 50.54975 36857 ft 480 kts 155°
2026-05-08 06:20 -10.24247 50.57672 36853 ft 480 kts 155°
2026-05-08 06:20 -10.30407 50.60386 36856 ft 480 kts 155°
2026-05-08 06:21 -10.36514 50.63078 36855 ft 480 kts 155°
2026-05-08 06:21 -10.42655 50.65786 36853 ft 481 kts 155°
2026-05-08 06:22 -10.48841 50.68515 36854 ft 481 kts 155°
2026-05-08 06:22 -10.54962 50.71217 36855 ft 481 kts 155°
2026-05-08 06:23 -10.61097 50.73925 36854 ft 481 kts 155°
2026-05-08 06:23 -10.67269 50.76652 36851 ft 481 kts 155°
2026-05-08 06:24 -10.73410 50.79366 36853 ft 481 kts 155°
2026-05-08 06:24 -10.79547 50.82080 36854 ft 481 kts 155°
2026-05-08 06:25 -10.85727 50.84813 36853 ft 482 kts 155°
2026-05-08 06:25 -10.91855 50.87525 36851 ft 482 kts 155°
2026-05-08 06:26 -10.98044 50.90265 36852 ft 482 kts 155°
2026-05-08 06:26 -11.04170 50.92978 36849 ft 483 kts 155°
2026-05-08 06:27 -11.10346 50.95715 36848 ft 483 kts 155°
2026-05-08 06:27 -11.16455 50.98424 36847 ft 483 kts 155°
2026-05-08 06:28 -11.22621 51.01159 36847 ft 483 kts 155°
2026-05-08 06:28 -11.28803 51.03902 36847 ft 483 kts 155°
2026-05-08 06:29 -11.34982 51.06645 36847 ft 483 kts 155°
2026-05-08 06:29 -11.41114 51.09369 36847 ft 483 kts 155°
2026-05-08 06:30 -11.47286 51.12112 36847 ft 483 kts 155°
2026-05-08 06:30 -11.53461 51.14857 36847 ft 482 kts 155°
2026-05-08 06:31 -11.59623 51.17598 36846 ft 482 kts 155°
2026-05-08 06:31 -11.65782 51.20339 36847 ft 482 kts 155°
2026-05-08 06:32 -11.71932 51.23077 36847 ft 483 kts 155°
2026-05-08 06:32 -11.78109 51.25829 36847 ft 483 kts 155°
2026-05-08 06:33 -11.84254 51.28567 36847 ft 482 kts 155°
2026-05-08 06:33 -11.90413 51.31313 36847 ft 482 kts 155°
2026-05-08 06:34 -11.96588 51.34068 36847 ft 483 kts 155°
2026-05-08 06:34 -12.02742 51.36815 36847 ft 482 kts 155°
2026-05-08 06:35 -12.08873 51.39553 36847 ft 482 kts 155°
2026-05-08 06:35 -12.15062 51.42318 36845 ft 482 kts 155°
2026-05-08 06:36 -12.21193 51.45060 36845 ft 482 kts 155°
2026-05-08 06:36 -12.27362 51.47820 36846 ft 482 kts 155°
2026-05-08 06:37 -12.33512 51.50573 36845 ft 483 kts 155°
2026-05-08 06:37 -12.39659 51.53326 36846 ft 482 kts 155°
2026-05-08 06:38 -12.45833 51.56092 36845 ft 482 kts 155°
2026-05-08 06:38 -12.51982 51.58849 36846 ft 482 kts 155°
2026-05-08 06:39 -12.58134 51.61608 36846 ft 482 kts 155°
2026-05-08 06:39 -12.64300 51.64375 36846 ft 482 kts 155°
2026-05-08 06:40 -12.70462 51.67142 36848 ft 482 kts 155°
2026-05-08 06:40 -12.76606 51.69902 36848 ft 482 kts 155°
2026-05-08 06:41 -12.82767 51.72671 36848 ft 482 kts 155°
2026-05-08 06:41 -12.88899 51.75429 36848 ft 482 kts 155°
2026-05-08 06:42 -12.95056 51.78199 36849 ft 482 kts 155°
2026-05-08 06:42 -13.01182 51.80957 36849 ft 482 kts 155°
2026-05-08 06:43 -13.07334 51.83728 36849 ft 482 kts 155°
2026-05-08 06:43 -13.13491 51.86503 36850 ft 482 kts 155°
2026-05-08 06:44 -13.19659 51.89285 36847 ft 482 kts 155°
2026-05-08 06:44 -13.25785 51.92049 36847 ft 482 kts 155°
2026-05-08 06:45 -13.31955 51.94834 36847 ft 482 kts 155°
2026-05-08 06:45 -13.38098 51.97609 36847 ft 482 kts 155°
2026-05-08 06:46 -13.44253 52.00391 36847 ft 482 kts 155°
2026-05-08 06:46 -13.50376 52.03159 36847 ft 482 kts 155°
2026-05-08 06:47 -13.56549 52.05953 36847 ft 482 kts 155°
2026-05-08 06:47 -13.62675 52.08726 36846 ft 482 kts 155°
2026-05-08 06:48 -13.68829 52.11513 36848 ft 482 kts 155°
2026-05-08 06:48 -13.74957 52.14291 36847 ft 482 kts 155°
2026-05-08 06:49 -13.81138 52.17094 36846 ft 482 kts 155°
2026-05-08 06:49 -13.87294 52.19887 36848 ft 483 kts 155°
2026-05-08 06:50 -13.93434 52.22674 36848 ft 483 kts 155°
2026-05-08 06:50 -13.99574 52.25464 36847 ft 483 kts 155°
2026-05-08 06:51 -14.05746 52.28269 36847 ft 482 kts 155°
2026-05-08 06:51 -14.11885 52.31060 36845 ft 482 kts 155°
2026-05-08 06:52 -14.18018 52.33851 36845 ft 483 kts 155°
2026-05-08 06:52 -14.24200 52.36667 36846 ft 483 kts 155°
2026-05-08 06:53 -14.30334 52.39462 36846 ft 483 kts 155°
2026-05-08 06:53 -14.36472 52.42260 36845 ft 483 kts 155°
2026-05-08 06:54 -14.42642 52.45074 36846 ft 483 kts 155°
2026-05-08 06:54 -14.48799 52.47884 36845 ft 483 kts 155°
2026-05-08 06:55 -14.54945 52.50692 36846 ft 483 kts 155°
2026-05-08 06:55 -14.61085 52.53497 36845 ft 484 kts 155°
2026-05-08 06:56 -14.67280 52.56330 36847 ft 483 kts 155°
2026-05-08 06:56 -14.73433 52.59146 36847 ft 484 kts 155°
2026-05-08 06:57 -14.79566 52.61954 36846 ft 483 kts 155°
2026-05-08 06:57 -14.85718 52.64772 36846 ft 483 kts 155°
2026-05-08 06:58 -14.91878 52.67596 36848 ft 483 kts 155°
2026-05-08 06:58 -14.98023 52.70415 36848 ft 484 kts 154°
2026-05-08 06:59 -15.04184 52.73242 36849 ft 483 kts 154°
2026-05-08 06:59 -15.10369 52.76083 36848 ft 484 kts 154°
2026-05-08 07:00 -15.16499 52.78901 36847 ft 484 kts 155°
2026-05-08 07:00 -15.22684 52.81745 36846 ft 484 kts 155°
2026-05-08 07:01 -15.28817 52.84568 36847 ft 484 kts 155°
2026-05-08 07:01 -15.34961 52.87397 36847 ft 484 kts 155°
2026-05-08 07:02 -15.41138 52.90243 36847 ft 484 kts 154°
2026-05-08 07:02 -15.47279 52.93076 36846 ft 484 kts 155°
2026-05-08 07:03 -15.53473 52.95933 36847 ft 484 kts 155°
2026-05-08 07:03 -15.59624 52.98772 36847 ft 484 kts 155°
2026-05-08 07:04 -15.65786 53.01619 36847 ft 484 kts 154°
2026-05-08 07:04 -15.71927 53.04458 36847 ft 484 kts 154°
2026-05-08 07:05 -15.78109 53.07318 36848 ft 484 kts 155°
2026-05-08 07:05 -15.84248 53.10160 36848 ft 484 kts 154°
2026-05-08 07:06 -15.90412 53.13015 36848 ft 484 kts 155°
2026-05-08 07:06 -15.96573 53.15871 36849 ft 484 kts 154°
2026-05-08 07:07 -16.02719 53.18721 36847 ft 484 kts 155°
2026-05-08 07:07 -16.08878 53.21579 36847 ft 484 kts 155°
2026-05-08 07:08 -16.15060 53.24451 36847 ft 484 kts 154°
2026-05-08 07:08 -16.21186 53.27298 36846 ft 484 kts 154°
2026-05-08 07:09 -16.27362 53.30171 36846 ft 484 kts 155°
2026-05-08 07:09 -16.33490 53.33023 36846 ft 484 kts 154°
2026-05-08 07:10 -16.39654 53.35894 36845 ft 484 kts 155°
2026-05-08 07:10 -16.45824 53.38770 36846 ft 484 kts 154°
2026-05-08 07:11 -16.51942 53.41624 36846 ft 484 kts 154°
2026-05-08 07:11 -16.58110 53.44502 36846 ft 484 kts 154°
2026-05-08 07:12 -16.64252 53.47371 36847 ft 484 kts 154°
2026-05-08 07:12 -16.70436 53.50262 36846 ft 484 kts 154°
2026-05-08 07:13 -16.76581 53.53136 36847 ft 484 kts 154°
2026-05-08 07:13 -16.82713 53.56007 36848 ft 484 kts 154°
2026-05-08 07:14 -16.88879 53.58895 36847 ft 484 kts 154°
2026-05-08 07:14 -16.95015 53.61771 36847 ft 484 kts 154°
2026-05-08 07:15 -17.01142 53.64645 36847 ft 484 kts 154°
2026-05-08 07:15 -17.07303 53.67537 36848 ft 484 kts 154°
2026-05-08 07:16 -17.13436 53.70419 36848 ft 484 kts 154°
2026-05-08 07:16 -17.19591 53.73313 36846 ft 484 kts 154°
2026-05-08 07:17 -17.25748 53.76209 36846 ft 484 kts 154°
2026-05-08 07:17 -17.31872 53.79092 36847 ft 484 kts 154°
2026-05-08 07:18 -17.38042 53.81999 36848 ft 484 kts 154°
2026-05-08 07:18 -17.44155 53.84881 36848 ft 484 kts 154°
2026-05-08 07:19 -17.50318 53.87788 36848 ft 484 kts 154°
2026-05-08 07:19 -17.56451 53.90684 36848 ft 484 kts 154°
2026-05-08 07:20 -17.62620 53.93600 36847 ft 484 kts 154°
2026-05-08 07:20 -17.68730 53.96489 36848 ft 484 kts 154°
2026-05-08 07:21 -17.74873 53.99397 36848 ft 483 kts 154°
2026-05-08 07:21 -17.81000 54.02299 36848 ft 484 kts 154°
2026-05-08 07:22 -17.87163 54.05219 36848 ft 483 kts 154°
2026-05-08 07:22 -17.93280 54.08121 36848 ft 482 kts 154°
2026-05-08 07:23 -17.99422 54.11037 36848 ft 483 kts 154°
2026-05-08 07:23 -18.05537 54.13942 36848 ft 483 kts 154°
2026-05-08 07:24 -18.11651 54.16845 36846 ft 482 kts 154°
2026-05-08 07:24 -18.17766 54.19724 36846 ft 481 kts 154°
2026-05-08 07:25 -18.23893 54.22611 36846 ft 481 kts 154°
2026-05-08 07:26 -18.33076 54.26942 36846 ft 480 kts 154°
2026-05-08 07:26 -18.39163 54.29817 36846 ft 481 kts 154°
2026-05-08 07:27 -18.45302 54.32719 36846 ft 481 kts 154°
2026-05-08 07:27 -18.51404 54.35605 36846 ft 480 kts 154°
2026-05-08 07:28 -18.57500 54.38491 36846 ft 480 kts 154°
2026-05-08 07:28 -18.63630 54.41278 36849 ft 480 kts 158°
2026-05-08 07:29 -18.69897 54.43739 36846 ft 480 kts 158°
2026-05-08 07:29 -18.76143 54.46206 36846 ft 480 kts 158°
2026-05-08 07:30 -18.82391 54.48689 36846 ft 479 kts 158°
2026-05-08 07:30 -18.88655 54.51188 36846 ft 479 kts 158°
2026-05-08 07:31 -18.94910 54.53689 36845 ft 479 kts 158°
2026-05-08 07:31 -19.01107 54.56171 36846 ft 479 kts 158°
2026-05-08 07:32 -19.07361 54.58680 36819 ft 475 kts 158°
2026-05-08 07:32 -19.10427 54.59910 36220 ft 472 kts 158°
2026-05-08 07:32 -19.13533 54.61158 35266 ft 475 kts 158°
2026-05-08 07:32 -19.16631 54.62403 34392 ft 475 kts 158°
2026-05-08 07:33 -19.19708 54.63640 33572 ft 475 kts 158°
2026-05-08 07:33 -19.22799 54.64883 32750 ft 474 kts 158°
2026-05-08 07:33 -19.25890 54.66126 31947 ft 477 kts 158°
2026-05-08 07:33 -19.29034 54.67393 31081 ft 496 kts 158°
2026-05-08 07:34 -19.32317 54.68715 30220 ft 500 kts 158°
2026-05-08 07:34 -19.35506 54.69999 29741 ft 492 kts 157°
2026-05-08 07:34 -19.38695 54.71283 29231 ft 485 kts 157°
2026-05-08 07:34 -19.41837 54.72550 28677 ft 479 kts 157°
2026-05-08 07:35 -19.44948 54.73804 28113 ft 474 kts 157°
2026-05-08 07:35 -19.47985 54.75029 27558 ft 470 kts 157°
2026-05-08 07:35 -19.51045 54.76265 26977 ft 466 kts 157°
2026-05-08 07:35 -19.54039 54.77474 26405 ft 462 kts 158°
2026-05-08 07:36 -19.57052 54.78692 25825 ft 458 kts 158°
2026-05-08 07:36 -19.60002 54.79884 25243 ft 455 kts 158°
2026-05-08 07:36 -19.62960 54.81080 24660 ft 451 kts 158°
2026-05-08 07:36 -19.65905 54.82271 24069 ft 448 kts 158°
2026-05-08 07:37 -19.68787 54.83438 23484 ft 445 kts 158°
2026-05-08 07:37 -19.71663 54.84602 22906 ft 442 kts 158°
2026-05-08 07:37 -19.74534 54.85764 22311 ft 439 kts 158°
2026-05-08 07:37 -19.77406 54.86928 21724 ft 437 kts 158°
2026-05-08 07:38 -19.80220 54.88069 21140 ft 434 kts 158°
2026-05-08 07:38 -19.83052 54.89217 20529 ft 433 kts 158°
2026-05-08 07:38 -19.85847 54.90351 19926 ft 430 kts 159°
2026-05-08 07:38 -19.88637 54.91483 19318 ft 428 kts 159°
2026-05-08 07:39 -19.91423 54.92614 18702 ft 426 kts 159°
2026-05-08 07:39 -19.94189 54.93737 18079 ft 425 kts 159°
2026-05-08 07:39 -19.96929 54.94850 17411 ft 424 kts 159°
2026-05-08 07:39 -19.99677 54.95967 16761 ft 422 kts 159°
2026-05-08 07:40 -20.02392 54.97071 16147 ft 416 kts 159°
2026-05-08 07:40 -20.05075 54.98162 15534 ft 411 kts 160°
2026-05-08 07:40 -20.07756 54.99253 14914 ft 406 kts 160°
2026-05-08 07:40 -20.10379 55.00320 14304 ft 401 kts 160°
2026-05-08 07:41 -20.12952 55.01368 13702 ft 396 kts 160°
2026-05-08 07:41 -20.15520 55.02413 13098 ft 391 kts 160°
2026-05-08 07:41 -20.18026 55.03435 12509 ft 385 kts 160°
2026-05-08 07:41 -20.20500 55.04439 11922 ft 381 kts 160°
2026-05-08 07:42 -20.22980 55.05446 11329 ft 376 kts 160°
2026-05-08 07:42 -20.25412 55.06441 10751 ft 372 kts 161°
2026-05-08 07:42 -20.27821 55.07423 10435 ft 359 kts 161°
2026-05-08 07:42 -20.30102 55.08360 10353 ft 341 kts 161°
2026-05-08 07:43 -20.32264 55.09244 10239 ft 326 kts 161°
2026-05-08 07:43 -20.34325 55.10082 10113 ft 313 kts 162°
2026-05-08 07:43 -20.36343 55.10907 9965 ft 302 kts 161°
2026-05-08 07:43 -20.38273 55.11698 9822 ft 293 kts 161°
2026-05-08 07:44 -20.40152 55.12465 9648 ft 285 kts 162°
2026-05-08 07:44 -20.42013 55.13224 9251 ft 287 kts 161°
2026-05-08 07:44 -20.43870 55.13980 8850 ft 288 kts 162°
2026-05-08 07:44 -20.45758 55.14751 8466 ft 288 kts 161°
2026-05-08 07:45 -20.47636 55.15523 8098 ft 288 kts 162°
2026-05-08 07:45 -20.49516 55.16293 7734 ft 288 kts 162°
2026-05-08 07:45 -20.51370 55.17054 7380 ft 288 kts 161°
2026-05-08 07:45 -20.53247 55.17821 7023 ft 287 kts 162°
2026-05-08 07:46 -20.55115 55.18585 6669 ft 287 kts 162°
2026-05-08 07:46 -20.56990 55.19353 6313 ft 287 kts 161°
2026-05-08 07:46 -20.58862 55.20121 5964 ft 287 kts 162°
2026-05-08 07:46 -20.60700 55.20874 5622 ft 286 kts 161°
2026-05-08 07:47 -20.62557 55.21635 5269 ft 285 kts 161°
2026-05-08 07:47 -20.64410 55.22393 4931 ft 282 kts 161°
2026-05-08 07:47 -20.66248 55.23146 4599 ft 279 kts 161°
2026-05-08 07:47 -20.68046 55.23890 4275 ft 277 kts 161°
2026-05-08 07:48 -20.69858 55.24632 3945 ft 275 kts 161°
2026-05-08 07:48 -20.71638 55.25359 3674 ft 270 kts 160°
2026-05-08 07:48 -20.73365 55.26069 3510 ft 262 kts 161°
2026-05-08 07:48 -20.75046 55.26760 3376 ft 255 kts 160°
2026-05-08 07:49 -20.76667 55.27448 3266 ft 246 kts 155°
2026-05-08 07:49 -20.77948 55.28588 3126 ft 239 kts 128°
2026-05-08 07:49 -20.78833 55.30062 3015 ft 228 kts 120°
2026-05-08 07:49 -20.79553 55.31504 2894 ft 215 kts 117°
2026-05-08 07:50 -20.80199 55.32866 2773 ft 191 kts 117°
2026-05-08 07:50 -20.80763 55.34066 2750 ft 175 kts 117°
2026-05-08 07:50 -20.81288 55.35185 2757 ft 161 kts 117°
2026-05-08 07:50 -20.81793 55.36262 2757 ft 163 kts 117°
2026-05-08 07:51 -20.82302 55.37355 2683 ft 166 kts 116°
2026-05-08 07:51 -20.82798 55.38446 2466 ft 161 kts 116°
2026-05-08 07:51 -20.83273 55.39515 2235 ft 161 kts 115°
2026-05-08 07:51 -20.83769 55.40581 2020 ft 159 kts 118°
2026-05-08 07:52 -20.84305 55.41632 1818 ft 161 kts 118°
2026-05-08 07:52 -20.84799 55.42695 1602 ft 159 kts 115°
2026-05-08 07:52 -20.85278 55.43748 1402 ft 159 kts 117°
2026-05-08 07:52 -20.85784 55.44799 1198 ft 159 kts 117°
2026-05-08 07:53 -20.86268 55.45850 999 ft 156 kts 116°
2026-05-08 07:53 -20.86745 55.46883 811 ft 155 kts 116°
2026-05-08 07:53 -20.87242 55.47926 647 ft 156 kts 116°
2026-05-08 07:53 -20.87731 55.48961 452 ft 156 kts 117°
2026-05-08 07:54 -20.88216 55.49987 262 ft 154 kts 116°
2026-05-08 07:54 -20.88693 55.51006 141 ft 142 kts 118°
2026-05-08 07:54 -20.89054 55.51770 140 ft 89 kts 117°
2026-05-08 07:54 -20.89247 55.52182 140 ft 30 kts 116°
2026-05-08 07:55 -20.89331 55.52227 140 ft 10 kts 205°
2026-05-08 07:55 -20.89395 55.52187 141 ft 10 kts 216°
2026-05-08 07:55 -20.89408 55.52136 141 ft 7 kts 286°
2026-05-08 07:55 -20.89385 55.52085 141 ft 7 kts 298°
2026-05-08 07:56 -20.89370 55.52056 141 ft 7 kts 300°